THY2904 SAEZ-LTFM

Flight info

Callsign THY2904
Flight time N/A
Altitude 31000
Route PTA6A PAPIX DCT DUR DCT COA DCT ITBEB UN857 VUPIP UL206 VRI UL330 DESEX/N0498F330 UL330 UDIGA DCT 01N020W 09N010W/N0486F350 DCT RIPUL DCT 20N000E DCT BERTI/N0475F370 DCT GRT DCT BONAR DCT ATV UN604 AMANI UG8 SUDES UN604 INBET
Aircraft B77W/H-SDE1E2E3FGHIJ2J3J4J5M1RWXY/LB1D1

Departure

Time 2026-04-29 05:27
Airport Ezeiza International Airport - Ministro Pistarini (SAEZ)

Arrival

Time N/A
Airport İstanbul Airport (LTFM)
Time Latitude Longitude Altitude Speed Heading
2026-04-29 04:52 -34.81559 -58.53923 85 ft 0 kts 322°
2026-04-29 05:10 -34.81561 -58.53920 85 ft 2 kts 322°
2026-04-29 05:10 -34.81575 -58.53908 85 ft 2 kts 325°
2026-04-29 05:10 -34.81589 -58.53897 85 ft 2 kts 328°
2026-04-29 05:10 -34.81603 -58.53887 85 ft 2 kts 331°
2026-04-29 05:11 -34.81617 -58.53877 85 ft 2 kts 335°
2026-04-29 05:11 -34.81633 -58.53870 85 ft 2 kts 341°
2026-04-29 05:11 -34.81649 -58.53864 85 ft 2 kts 349°
2026-04-29 05:11 -34.81665 -58.53862 85 ft 2 kts 359°
2026-04-29 05:12 -34.81682 -58.53863 85 ft 2 kts 12°
2026-04-29 05:12 -34.81697 -58.53869 83 ft 2 kts 27°
2026-04-29 05:12 -34.81711 -58.53881 85 ft 2 kts 43°
2026-04-29 05:12 -34.81721 -58.53893 85 ft 1 kts 55°
2026-04-29 05:13 -34.81723 -58.53896 85 ft 0 kts 58°
2026-04-29 05:15 -34.81717 -58.53886 84 ft 7 kts 59°
2026-04-29 05:15 -34.81703 -58.53829 85 ft 7 kts 86°
2026-04-29 05:15 -34.81721 -58.53756 85 ft 11 kts 123°
2026-04-29 05:16 -34.81784 -58.53700 82 ft 11 kts 151°
2026-04-29 05:16 -34.81853 -58.53657 83 ft 11 kts 151°
2026-04-29 05:16 -34.81906 -58.53589 85 ft 11 kts 115°
2026-04-29 05:16 -34.81930 -58.53499 83 ft 11 kts 105°
2026-04-29 05:17 -34.81949 -58.53406 83 ft 11 kts 103°
2026-04-29 05:17 -34.81968 -58.53314 85 ft 11 kts 104°
2026-04-29 05:17 -34.81987 -58.53222 82 ft 11 kts 104°
2026-04-29 05:17 -34.82005 -58.53129 85 ft 11 kts 103°
2026-04-29 05:18 -34.82023 -58.53037 88 ft 11 kts 103°
2026-04-29 05:18 -34.82042 -58.52945 89 ft 11 kts 104°
2026-04-29 05:18 -34.82061 -58.52852 84 ft 12 kts 104°
2026-04-29 05:18 -34.82080 -58.52755 85 ft 12 kts 104°
2026-04-29 05:19 -34.82099 -58.52660 84 ft 12 kts 103°
2026-04-29 05:19 -34.82118 -58.52563 80 ft 12 kts 103°
2026-04-29 05:19 -34.82137 -58.52467 83 ft 12 kts 104°
2026-04-29 05:19 -34.82156 -58.52370 84 ft 12 kts 103°
2026-04-29 05:20 -34.82175 -58.52274 80 ft 12 kts 104°
2026-04-29 05:20 -34.82195 -58.52177 84 ft 12 kts 104°
2026-04-29 05:20 -34.82214 -58.52081 82 ft 12 kts 103°
2026-04-29 05:20 -34.82234 -58.51985 83 ft 12 kts 104°
2026-04-29 05:21 -34.82253 -58.51888 82 ft 12 kts 104°
2026-04-29 05:21 -34.82286 -58.51800 86 ft 12 kts 143°
2026-04-29 05:21 -34.82339 -58.51794 84 ft 12 kts 185°
2026-04-29 05:21 -34.82420 -58.51814 85 ft 12 kts 194°
2026-04-29 05:22 -34.82498 -58.51844 91 ft 12 kts 207°
2026-04-29 05:22 -34.82517 -58.51933 88 ft 12 kts 283°
2026-04-29 05:22 -34.82513 -58.51952 89 ft 0 kts 282°
2026-04-29 05:26 -34.82496 -58.52044 87 ft 25 kts 281°
2026-04-29 05:26 -34.82405 -58.52561 83 ft 105 kts 283°
2026-04-29 05:26 -34.82191 -58.53755 88 ft 183 kts 282°
2026-04-29 05:26 -34.81898 -58.55480 368 ft 218 kts 283°
2026-04-29 05:27 -34.81532 -58.57228 1149 ft 218 kts 284°
2026-04-29 05:27 -34.80789 -58.60821 3462 ft 224 kts 284°
2026-04-29 05:27 -34.80493 -58.62729 4136 ft 239 kts 267°
2026-04-29 05:28 -34.80948 -58.64708 4312 ft 248 kts 247°
2026-04-29 05:28 -34.81360 -58.66764 4577 ft 258 kts 275°
2026-04-29 05:28 -34.80733 -58.68825 4879 ft 270 kts 311°
2026-04-29 05:28 -34.79198 -58.70153 5295 ft 278 kts 344°
2026-04-29 05:29 -34.77297 -58.70227 5830 ft 283 kts 17°
2026-04-29 05:29 -34.75624 -58.69008 6392 ft 285 kts 50°
2026-04-29 05:29 -34.74558 -58.66996 6892 ft 285 kts 63°
2026-04-29 05:29 -34.73605 -58.64842 7380 ft 292 kts 62°
2026-04-29 05:30 -34.72611 -58.62684 8049 ft 292 kts 61°
2026-04-29 05:30 -34.71596 -58.60534 8708 ft 294 kts 60°
2026-04-29 05:30 -34.70558 -58.58379 9325 ft 296 kts 60°
2026-04-29 05:30 -34.69501 -58.56222 9912 ft 299 kts 59°
2026-04-29 05:31 -34.68417 -58.54032 10386 ft 307 kts 59°
2026-04-29 05:31 -34.67269 -58.51733 10527 ft 328 kts 59°
2026-04-29 05:31 -34.66046 -58.49301 10697 ft 347 kts 59°
2026-04-29 05:31 -34.64761 -58.46757 10872 ft 366 kts 58°
2026-04-29 05:32 -34.63388 -58.44045 11296 ft 377 kts 58°
2026-04-29 05:32 -34.62016 -58.41338 11844 ft 384 kts 58°
2026-04-29 05:32 -34.60602 -58.38548 12506 ft 388 kts 58°
2026-04-29 05:32 -34.59182 -58.35750 13223 ft 391 kts 58°
2026-04-29 05:33 -34.57752 -58.32931 13880 ft 394 kts 58°
2026-04-29 05:33 -34.56307 -58.30085 14517 ft 398 kts 58°
2026-04-29 05:33 -34.54841 -58.27202 15127 ft 402 kts 58°
2026-04-29 05:33 -34.53364 -58.24303 15752 ft 405 kts 58°
2026-04-29 05:34 -34.51890 -58.21372 16372 ft 409 kts 59°
2026-04-29 05:34 -34.50460 -58.18422 16930 ft 412 kts 60°
2026-04-29 05:34 -34.49018 -58.15419 17497 ft 416 kts 60°
2026-04-29 05:34 -34.47557 -58.12379 18067 ft 419 kts 60°
2026-04-29 05:35 -34.46071 -58.09302 18620 ft 423 kts 59°
2026-04-29 05:35 -34.44574 -58.06215 19160 ft 426 kts 59°
2026-04-29 05:35 -34.43065 -58.03113 19686 ft 430 kts 59°
2026-04-29 05:35 -34.41501 -58.00010 20200 ft 433 kts 56°
2026-04-29 05:36 -34.39658 -57.97101 20684 ft 436 kts 49°
2026-04-29 05:36 -34.37663 -57.94314 21156 ft 439 kts 49°
2026-04-29 05:36 -34.35674 -57.91497 21650 ft 442 kts 50°
2026-04-29 05:36 -34.33676 -57.88637 22105 ft 446 kts 50°
2026-04-29 05:37 -34.31677 -57.85760 22562 ft 449 kts 50°
2026-04-29 05:37 -34.29663 -57.82855 23001 ft 452 kts 50°
2026-04-29 05:37 -34.27639 -57.79932 23431 ft 455 kts 50°
2026-04-29 05:37 -34.25602 -57.76993 23852 ft 457 kts 50°
2026-04-29 05:38 -34.23573 -57.74070 24263 ft 460 kts 50°
2026-04-29 05:38 -34.21507 -57.71095 24669 ft 463 kts 50°
2026-04-29 05:38 -34.19428 -57.68105 25060 ft 466 kts 50°
2026-04-29 05:38 -34.17334 -57.65096 25442 ft 468 kts 50°
2026-04-29 05:39 -34.15234 -57.62081 25825 ft 471 kts 50°
2026-04-29 05:39 -34.13117 -57.59045 26161 ft 474 kts 50°
2026-04-29 05:39 -34.10990 -57.55997 26509 ft 476 kts 50°
2026-04-29 05:39 -34.08846 -57.52927 26849 ft 479 kts 50°
2026-04-29 05:40 -34.06693 -57.49848 27175 ft 481 kts 50°
2026-04-29 05:40 -34.04531 -57.46758 27492 ft 483 kts 50°
2026-04-29 05:40 -34.02357 -57.43653 27802 ft 486 kts 50°
2026-04-29 05:40 -34.00172 -57.40536 28102 ft 488 kts 50°
2026-04-29 05:41 -33.97976 -57.37406 28389 ft 490 kts 50°
2026-04-29 05:41 -33.95795 -57.34299 28660 ft 492 kts 50°
2026-04-29 05:41 -33.93580 -57.31147 28920 ft 494 kts 50°
2026-04-29 05:41 -33.91355 -57.27983 29172 ft 496 kts 50°
2026-04-29 05:42 -33.89126 -57.24817 29505 ft 495 kts 50°
2026-04-29 05:42 -33.86899 -57.21656 29868 ft 494 kts 50°
2026-04-29 05:42 -33.84680 -57.18508 30230 ft 492 kts 50°
2026-04-29 05:42 -33.82461 -57.15364 30558 ft 492 kts 50°
2026-04-29 05:43 -33.80246 -57.12229 30853 ft 492 kts 50°
2026-04-29 05:43 -33.78023 -57.09084 30934 ft 495 kts 50°
2026-04-29 05:43 -33.73562 -57.02785 30991 ft 493 kts 50°
2026-04-29 05:44 -33.69137 -56.96545 31003 ft 489 kts 50°
2026-04-29 05:44 -33.64716 -56.90322 31005 ft 489 kts 50°
2026-04-29 05:45 -33.60323 -56.84150 31005 ft 490 kts 49°
2026-04-29 05:45 -33.55887 -56.77927 31002 ft 491 kts 49°
2026-04-29 05:46 -33.51442 -56.71704 31004 ft 491 kts 49°
2026-04-29 05:46 -33.46994 -56.65485 31000 ft 492 kts 49°
2026-04-29 05:47 -33.42536 -56.59262 31001 ft 492 kts 49°
2026-04-29 05:47 -33.38072 -56.53041 31003 ft 492 kts 49°
2026-04-29 05:48 -33.33753 -56.46746 30997 ft 492 kts 54°
2026-04-29 05:48 -33.29810 -56.40060 31005 ft 492 kts 55°
2026-04-29 05:49 -33.25905 -56.33355 31001 ft 492 kts 55°
2026-04-29 05:49 -33.21963 -56.26677 31002 ft 491 kts 54°
2026-04-29 05:50 -33.17996 -56.20025 31002 ft 491 kts 54°
2026-04-29 05:50 -33.14023 -56.13388 31002 ft 491 kts 54°
2026-04-29 05:51 -33.10042 -56.06748 31000 ft 491 kts 54°
2026-04-29 05:51 -33.06064 -56.00123 31002 ft 491 kts 54°
2026-04-29 05:52 -33.02102 -55.93534 31002 ft 491 kts 54°
2026-04-29 05:52 -32.98115 -55.86915 31002 ft 491 kts 54°
2026-04-29 05:53 -32.94123 -55.80300 30998 ft 491 kts 54°
2026-04-29 05:53 -32.90131 -55.73696 31000 ft 491 kts 54°
2026-04-29 05:54 -32.86139 -55.67103 31002 ft 491 kts 54°
2026-04-29 05:54 -32.82133 -55.60501 31002 ft 491 kts 54°
2026-04-29 05:55 -32.78129 -55.53913 31002 ft 491 kts 54°
2026-04-29 05:55 -32.74150 -55.47376 30997 ft 491 kts 54°
2026-04-29 05:56 -32.70114 -55.40759 31002 ft 491 kts 54°
2026-04-29 05:56 -32.66102 -55.34192 31002 ft 491 kts 54°
2026-04-29 05:57 -32.62111 -55.27671 31002 ft 491 kts 54°
2026-04-29 05:57 -32.58094 -55.21119 31002 ft 491 kts 54°
2026-04-29 05:58 -32.54064 -55.14557 30997 ft 491 kts 54°
2026-04-29 05:58 -32.50038 -55.08013 30998 ft 491 kts 54°
2026-04-29 05:59 -32.46008 -55.01473 30999 ft 491 kts 54°
2026-04-29 05:59 -32.41998 -54.94978 31002 ft 491 kts 54°
2026-04-29 06:00 -32.37954 -54.88439 31002 ft 491 kts 54°
2026-04-29 06:00 -32.33907 -54.81905 31002 ft 491 kts 54°
2026-04-29 06:01 -32.29860 -54.75383 31002 ft 491 kts 53°
2026-04-29 06:01 -32.25811 -54.68871 31002 ft 491 kts 53°
2026-04-29 06:02 -32.21785 -54.62405 31002 ft 491 kts 53°
2026-04-29 06:02 -32.17730 -54.55903 31002 ft 491 kts 53°
2026-04-29 06:03 -32.13671 -54.49408 30999 ft 491 kts 53°
2026-04-29 06:03 -32.09606 -54.42913 31002 ft 491 kts 53°
2026-04-29 06:04 -32.05562 -54.36463 31002 ft 491 kts 53°
2026-04-29 06:04 -32.01482 -54.29966 31002 ft 491 kts 53°
2026-04-29 06:05 -31.97409 -54.23492 31002 ft 491 kts 53°
2026-04-29 06:05 -31.93356 -54.17060 31002 ft 491 kts 53°
2026-04-29 06:06 -31.89277 -54.10598 31002 ft 491 kts 53°
2026-04-29 06:06 -31.85198 -54.04147 31002 ft 491 kts 53°
2026-04-29 06:07 -31.81109 -53.97691 31002 ft 491 kts 53°
2026-04-29 06:07 -31.77016 -53.91238 31002 ft 491 kts 53°
2026-04-29 06:08 -31.72953 -53.84846 31002 ft 491 kts 53°
2026-04-29 06:08 -31.68855 -53.78407 31002 ft 491 kts 53°
2026-04-29 06:09 -31.64764 -53.71990 31002 ft 491 kts 53°
2026-04-29 06:09 -31.60663 -53.65570 31000 ft 491 kts 53°
2026-04-29 06:10 -31.57253 -53.60239 31002 ft 491 kts 53°
2026-04-29 06:10 -31.53144 -53.53824 30998 ft 491 kts 53°
2026-04-29 06:11 -31.49037 -53.47425 31002 ft 491 kts 53°
2026-04-29 06:11 -31.44926 -53.41027 31003 ft 491 kts 53°
2026-04-29 06:12 -31.40810 -53.34634 31002 ft 491 kts 53°
2026-04-29 06:12 -31.36687 -53.28241 31002 ft 491 kts 53°
2026-04-29 06:13 -31.31897 -53.20825 31002 ft 491 kts 53°
2026-04-29 06:13 -31.28468 -53.15526 31002 ft 491 kts 53°
2026-04-29 06:14 -31.24338 -53.09153 30999 ft 491 kts 53°
2026-04-29 06:14 -31.20210 -53.02793 31002 ft 491 kts 53°
2026-04-29 06:15 -31.16070 -52.96425 31002 ft 491 kts 53°
2026-04-29 06:15 -31.11954 -52.90104 30999 ft 491 kts 53°
2026-04-29 06:16 -31.07810 -52.83752 31002 ft 491 kts 53°
2026-04-29 06:16 -31.03667 -52.77411 31002 ft 491 kts 53°
2026-04-29 06:17 -30.99521 -52.71074 31002 ft 491 kts 52°
2026-04-29 06:17 -30.95368 -52.64739 30999 ft 491 kts 52°
2026-04-29 06:18 -30.91217 -52.58415 31002 ft 491 kts 52°
2026-04-29 06:18 -30.87061 -52.52095 31000 ft 491 kts 52°
2026-04-29 06:19 -30.82927 -52.45818 31002 ft 491 kts 52°
2026-04-29 06:19 -30.78763 -52.39506 31000 ft 491 kts 52°
2026-04-29 06:20 -30.74598 -52.33201 31002 ft 491 kts 52°
2026-04-29 06:20 -30.70425 -52.26896 31002 ft 491 kts 52°
2026-04-29 06:21 -30.66253 -52.20601 31001 ft 491 kts 52°
2026-04-29 06:21 -30.62079 -52.14314 30998 ft 491 kts 52°
2026-04-29 06:22 -30.57901 -52.08031 30999 ft 491 kts 52°
2026-04-29 06:22 -30.53741 -52.01784 31004 ft 491 kts 52°
2026-04-29 06:23 -30.49555 -51.95509 30999 ft 491 kts 52°
2026-04-29 06:23 -30.45371 -51.89246 30997 ft 491 kts 52°
2026-04-29 06:24 -30.41178 -51.82980 31003 ft 491 kts 52°
2026-04-29 06:24 -30.37006 -51.76755 31001 ft 491 kts 52°
2026-04-29 06:25 -30.32813 -51.70507 31002 ft 491 kts 52°
2026-04-29 06:25 -30.28619 -51.64269 31003 ft 491 kts 52°
2026-04-29 06:26 -30.24410 -51.58018 31002 ft 491 kts 52°
2026-04-29 06:26 -30.20207 -51.51786 30997 ft 491 kts 52°
2026-04-29 06:27 -30.16020 -51.45586 31003 ft 491 kts 52°
2026-04-29 06:27 -30.11813 -51.39367 31002 ft 491 kts 52°
2026-04-29 06:28 -30.07603 -51.33152 31002 ft 491 kts 52°
2026-04-29 06:28 -30.03379 -51.26927 31002 ft 491 kts 52°
2026-04-29 06:29 -29.99181 -51.20748 31002 ft 491 kts 52°
2026-04-29 06:29 -29.94961 -51.14545 31002 ft 491 kts 52°
2026-04-29 06:30 -29.88410 -51.05448 31003 ft 491 kts 50°
2026-04-29 06:31 -29.83983 -50.99443 30997 ft 491 kts 50°
2026-04-29 06:31 -29.79602 -50.93456 31003 ft 491 kts 50°
2026-04-29 06:32 -29.75210 -50.87438 31003 ft 491 kts 50°
2026-04-29 06:32 -29.70807 -50.81413 31002 ft 491 kts 50°
2026-04-29 06:33 -29.66401 -50.75395 31002 ft 491 kts 50°
2026-04-29 06:33 -29.61997 -50.69388 31003 ft 491 kts 50°
2026-04-29 06:34 -29.57587 -50.63383 30999 ft 491 kts 50°
2026-04-29 06:34 -29.53178 -50.57388 31002 ft 491 kts 50°
2026-04-29 06:35 -29.48543 -50.51605 31001 ft 491 kts 46°
2026-04-29 06:35 -29.43820 -50.45930 31001 ft 491 kts 46°
2026-04-29 06:36 -29.39135 -50.40288 31001 ft 491 kts 46°
2026-04-29 06:36 -29.34434 -50.34610 30999 ft 491 kts 46°
2026-04-29 06:37 -29.29726 -50.28924 31002 ft 491 kts 46°
2026-04-29 06:37 -29.25022 -50.23252 31001 ft 491 kts 46°
2026-04-29 06:38 -29.20311 -50.17581 31001 ft 491 kts 46°
2026-04-29 06:38 -29.15593 -50.11911 31003 ft 491 kts 46°
2026-04-29 06:39 -29.10876 -50.06248 31002 ft 491 kts 46°
2026-04-29 06:39 -29.06156 -50.00590 30999 ft 491 kts 46°
2026-04-29 06:40 -29.01437 -49.94943 31001 ft 491 kts 46°
2026-04-29 06:40 -28.96742 -49.89329 31004 ft 491 kts 46°
2026-04-29 06:41 -28.92013 -49.83683 30999 ft 491 kts 46°
2026-04-29 06:41 -28.87327 -49.78005 31002 ft 491 kts 47°
2026-04-29 06:42 -28.82755 -49.72200 30998 ft 491 kts 48°
2026-04-29 06:42 -28.78195 -49.66397 30998 ft 491 kts 48°
2026-04-29 06:43 -28.73618 -49.60620 31002 ft 491 kts 48°
2026-04-29 06:43 -28.69050 -49.54880 31001 ft 491 kts 48°
2026-04-29 06:44 -28.64447 -49.49105 31003 ft 491 kts 47°
2026-04-29 06:44 -28.59851 -49.43345 30998 ft 491 kts 47°
2026-04-29 06:45 -28.55249 -49.37583 31004 ft 491 kts 47°
2026-04-29 06:45 -28.50651 -49.31834 30998 ft 491 kts 47°
2026-04-29 06:46 -28.46071 -49.26116 31003 ft 491 kts 47°
2026-04-29 06:46 -28.41448 -49.20381 31003 ft 491 kts 47°
2026-04-29 06:47 -28.36826 -49.14662 31002 ft 491 kts 47°
2026-04-29 06:47 -28.32206 -49.08946 30994 ft 491 kts 47°
2026-04-29 06:48 -28.27604 -49.03260 31004 ft 491 kts 47°
2026-04-29 06:48 -28.23044 -48.97489 31002 ft 491 kts 48°
2026-04-29 06:49 -28.18477 -48.91715 31001 ft 491 kts 48°
2026-04-29 06:49 -28.13881 -48.85978 31003 ft 491 kts 47°
2026-04-29 06:50 -28.09283 -48.80245 31000 ft 491 kts 47°
2026-04-29 06:50 -28.04687 -48.74512 31001 ft 491 kts 47°
2026-04-29 06:51 -28.00088 -48.68780 31002 ft 491 kts 47°
2026-04-29 06:51 -27.95522 -48.63096 31000 ft 491 kts 47°
2026-04-29 06:52 -27.90922 -48.57378 31003 ft 491 kts 47°
2026-04-29 06:52 -27.86320 -48.51666 31003 ft 491 kts 47°
2026-04-29 06:53 -27.81711 -48.45952 31003 ft 491 kts 47°
2026-04-29 06:53 -27.77106 -48.40251 31003 ft 491 kts 47°
2026-04-29 06:54 -27.72525 -48.34585 31003 ft 491 kts 47°
2026-04-29 06:54 -27.67891 -48.28864 31003 ft 491 kts 47°
2026-04-29 06:55 -27.63308 -48.23214 31001 ft 491 kts 47°
2026-04-29 06:55 -27.58698 -48.17535 31002 ft 491 kts 47°
2026-04-29 06:56 -27.54073 -48.11845 31003 ft 491 kts 47°
2026-04-29 06:56 -27.49447 -48.06159 31001 ft 491 kts 47°
2026-04-29 06:57 -27.44854 -48.00522 31003 ft 491 kts 47°
2026-04-29 06:57 -27.40232 -47.94856 31003 ft 491 kts 47°
2026-04-29 06:58 -27.35593 -47.89198 31002 ft 491 kts 47°
2026-04-29 06:58 -27.30941 -47.83569 31003 ft 491 kts 47°
2026-04-29 06:59 -27.26284 -47.77939 31000 ft 491 kts 47°
2026-04-29 06:59 -27.21631 -47.72315 30998 ft 491 kts 47°
2026-04-29 07:00 -27.16975 -47.66692 31003 ft 491 kts 47°
2026-04-29 07:00 -27.13104 -47.62023 31003 ft 491 kts 47°
2026-04-29 07:01 -27.08444 -47.56409 31000 ft 491 kts 47°
2026-04-29 07:01 -27.03779 -47.50796 31000 ft 491 kts 47°
2026-04-29 07:02 -26.99113 -47.45190 31001 ft 491 kts 47°
2026-04-29 07:02 -26.94447 -47.39590 31003 ft 491 kts 47°
2026-04-29 07:03 -26.89784 -47.34000 31001 ft 491 kts 47°
2026-04-29 07:03 -26.85137 -47.28453 31003 ft 491 kts 46°
2026-04-29 07:04 -26.80446 -47.22879 31002 ft 491 kts 46°
2026-04-29 07:04 -26.75762 -47.17312 31000 ft 491 kts 46°
2026-04-29 07:05 -26.71071 -47.11741 30998 ft 491 kts 47°
2026-04-29 07:05 -26.66405 -47.06151 31000 ft 491 kts 47°
2026-04-29 07:06 -26.61765 -47.00591 30998 ft 491 kts 47°
2026-04-29 07:06 -26.57080 -46.95028 31002 ft 491 kts 46°
2026-04-29 07:07 -26.52358 -46.89498 31002 ft 491 kts 46°
2026-04-29 07:07 -26.47643 -46.83977 31003 ft 491 kts 46°
2026-04-29 07:08 -26.42925 -46.78446 30999 ft 491 kts 46°
2026-04-29 07:08 -26.38213 -46.72931 30997 ft 491 kts 46°
2026-04-29 07:09 -26.33488 -46.67409 31003 ft 491 kts 46°
2026-04-29 07:09 -26.28796 -46.61930 30998 ft 491 kts 46°
2026-04-29 07:10 -26.24071 -46.56418 30998 ft 491 kts 46°
2026-04-29 07:10 -26.19345 -46.50911 31003 ft 491 kts 46°
2026-04-29 07:11 -26.14614 -46.45405 31003 ft 491 kts 46°
2026-04-29 07:11 -26.09888 -46.39912 31003 ft 491 kts 46°
2026-04-29 07:12 -26.05188 -46.34456 31002 ft 491 kts 46°
2026-04-29 07:12 -26.00453 -46.28965 31003 ft 491 kts 46°
2026-04-29 07:13 -25.95724 -46.23488 31003 ft 491 kts 46°
2026-04-29 07:13 -25.90979 -46.18001 31003 ft 491 kts 46°
2026-04-29 07:14 -25.86239 -46.12525 31003 ft 491 kts 46°
2026-04-29 07:14 -25.81499 -46.07056 30998 ft 491 kts 46°
2026-04-29 07:15 -25.76763 -46.01598 31001 ft 491 kts 46°
2026-04-29 07:15 -25.72019 -45.96137 31003 ft 491 kts 46°
2026-04-29 07:16 -25.67278 -45.90685 31003 ft 491 kts 46°
2026-04-29 07:16 -25.62558 -45.85268 31003 ft 491 kts 46°
2026-04-29 07:17 -25.57808 -45.79829 31002 ft 491 kts 46°
2026-04-29 07:17 -25.53051 -45.74383 31001 ft 491 kts 46°
2026-04-29 07:18 -25.48299 -45.68950 31003 ft 491 kts 46°
2026-04-29 07:18 -25.43543 -45.63517 31003 ft 491 kts 46°
2026-04-29 07:19 -25.38811 -45.58120 30998 ft 491 kts 46°
2026-04-29 07:19 -25.34053 -45.52697 31003 ft 491 kts 46°
2026-04-29 07:20 -25.29289 -45.47276 31003 ft 491 kts 46°
2026-04-29 07:20 -25.24524 -45.41860 31002 ft 491 kts 46°
2026-04-29 07:21 -25.19762 -45.36453 31003 ft 491 kts 46°
2026-04-29 07:21 -25.14995 -45.31048 31003 ft 491 kts 46°
2026-04-29 07:22 -25.10230 -45.25650 30999 ft 491 kts 46°
2026-04-29 07:22 -25.05447 -45.20240 31003 ft 491 kts 46°
2026-04-29 07:23 -25.00672 -45.14845 31001 ft 491 kts 46°
2026-04-29 07:23 -24.95900 -45.09458 30999 ft 491 kts 45°
2026-04-29 07:24 -24.91151 -45.04105 31003 ft 491 kts 45°
2026-04-29 07:24 -24.86369 -44.98721 31003 ft 491 kts 45°
2026-04-29 07:25 -24.81589 -44.93345 31003 ft 491 kts 45°
2026-04-29 07:25 -24.76803 -44.87969 31001 ft 491 kts 45°
2026-04-29 07:26 -24.72018 -44.82600 31003 ft 491 kts 45°
2026-04-29 07:26 -24.67232 -44.77236 31003 ft 491 kts 45°
2026-04-29 07:27 -24.62474 -44.71909 31000 ft 491 kts 45°
2026-04-29 07:27 -24.57683 -44.66551 31003 ft 491 kts 45°
2026-04-29 07:28 -24.52892 -44.61199 31002 ft 491 kts 45°
2026-04-29 07:28 -24.48094 -44.55853 31001 ft 491 kts 45°
2026-04-29 07:29 -24.43247 -44.50555 31002 ft 491 kts 45°
2026-04-29 07:29 -24.38396 -44.45284 31003 ft 491 kts 45°
2026-04-29 07:30 -24.33565 -44.40027 31003 ft 491 kts 45°
2026-04-29 07:30 -24.28719 -44.34751 30999 ft 491 kts 45°
2026-04-29 07:31 -24.21449 -44.26843 31002 ft 491 kts 45°
2026-04-29 07:31 -24.16594 -44.21572 31000 ft 491 kts 45°
2026-04-29 07:32 -24.11723 -44.16289 31003 ft 491 kts 45°
2026-04-29 07:32 -24.06882 -44.11043 31003 ft 491 kts 45°
2026-04-29 07:33 -24.02052 -44.05816 31003 ft 491 kts 45°
2026-04-29 07:33 -23.97187 -44.00562 31000 ft 491 kts 44°
2026-04-29 07:34 -23.92323 -43.95318 31003 ft 491 kts 44°
2026-04-29 07:34 -23.87450 -43.90068 31003 ft 491 kts 44°
2026-04-29 07:35 -23.82585 -43.84831 31000 ft 491 kts 44°
2026-04-29 07:35 -23.77714 -43.79592 31003 ft 491 kts 44°
2026-04-29 07:36 -23.72880 -43.74399 31000 ft 491 kts 44°
2026-04-29 07:36 -23.68005 -43.69168 31003 ft 491 kts 44°
2026-04-29 07:37 -23.63132 -43.63944 31003 ft 491 kts 44°
2026-04-29 07:37 -23.58363 -43.58614 31002 ft 491 kts 46°
2026-04-29 07:38 -23.53654 -43.53214 31002 ft 491 kts 46°
2026-04-29 07:38 -23.48922 -43.47849 31003 ft 491 kts 46°
2026-04-29 07:39 -23.44217 -43.42462 31002 ft 491 kts 47°
2026-04-29 07:39 -23.39553 -43.37066 30997 ft 491 kts 46°
2026-04-29 07:40 -23.34864 -43.31659 30999 ft 491 kts 46°
2026-04-29 07:40 -23.30172 -43.26270 31002 ft 491 kts 46°
2026-04-29 07:41 -23.25408 -43.20942 31002 ft 491 kts 45°
2026-04-29 07:41 -23.20618 -43.15642 31002 ft 491 kts 45°
2026-04-29 07:42 -23.15837 -43.10337 31003 ft 491 kts 45°
2026-04-29 07:42 -23.11094 -43.05065 31002 ft 491 kts 45°
2026-04-29 07:43 -23.06311 -42.99755 31002 ft 491 kts 45°
2026-04-29 07:43 -23.01530 -42.94451 30997 ft 491 kts 45°
2026-04-29 07:44 -22.96855 -42.89107 30998 ft 491 kts 50°
2026-04-29 07:44 -22.93006 -42.82995 31008 ft 490 kts 58°
2026-04-29 07:45 -22.89368 -42.76739 30996 ft 491 kts 57°
2026-04-29 07:45 -22.85657 -42.70511 31004 ft 491 kts 57°
2026-04-29 07:46 -22.81953 -42.64297 31001 ft 491 kts 57°
2026-04-29 07:46 -22.78870 -42.59138 31005 ft 491 kts 57°
2026-04-29 07:47 -22.74537 -42.51923 30998 ft 491 kts 57°
2026-04-29 07:47 -22.71415 -42.46727 31002 ft 491 kts 57°
2026-04-29 07:48 -22.67689 -42.40527 31000 ft 491 kts 57°
2026-04-29 07:48 -22.63965 -42.34336 30998 ft 491 kts 57°
2026-04-29 07:49 -22.60241 -42.28199 30999 ft 491 kts 54°
2026-04-29 07:49 -22.55752 -42.22636 31005 ft 490 kts 43°
2026-04-29 07:50 -22.50492 -42.17949 31009 ft 490 kts 39°
2026-04-29 07:50 -22.45220 -42.13258 30998 ft 491 kts 39°
2026-04-29 07:51 -22.39959 -42.08525 30997 ft 491 kts 40°
2026-04-29 07:51 -22.34745 -42.03835 31004 ft 491 kts 40°
2026-04-29 07:52 -22.29489 -41.99118 31000 ft 491 kts 39°
2026-04-29 07:52 -22.24234 -41.94409 31002 ft 491 kts 39°
2026-04-29 07:53 -22.18968 -41.89693 31003 ft 491 kts 39°
2026-04-29 07:53 -22.13709 -41.84989 30998 ft 491 kts 39°
2026-04-29 07:54 -22.08487 -41.80313 31002 ft 491 kts 40°
2026-04-29 07:54 -22.03237 -41.75607 31002 ft 491 kts 40°
2026-04-29 07:55 -21.97983 -41.70901 30997 ft 490 kts 39°
2026-04-29 07:55 -21.92725 -41.66204 31000 ft 490 kts 39°
2026-04-29 07:56 -21.87465 -41.61524 31004 ft 490 kts 39°
2026-04-29 07:56 -21.82207 -41.56849 31003 ft 490 kts 39°
2026-04-29 07:57 -21.76936 -41.52163 31003 ft 491 kts 39°
2026-04-29 07:57 -21.71673 -41.47489 31003 ft 491 kts 39°
2026-04-29 07:58 -21.66409 -41.42817 31000 ft 491 kts 39°
2026-04-29 07:58 -21.61139 -41.38156 31001 ft 491 kts 39°
2026-04-29 07:59 -21.55893 -41.33534 31002 ft 491 kts 39°
2026-04-29 07:59 -21.50613 -41.28883 31002 ft 491 kts 39°
2026-04-29 08:00 -21.45341 -41.24228 31001 ft 491 kts 39°
2026-04-29 08:00 -21.40075 -41.19562 31000 ft 491 kts 39°
2026-04-29 08:01 -21.34795 -41.14890 31002 ft 491 kts 39°
2026-04-29 08:01 -21.29529 -41.10239 29860 ft 491 kts 37°
2026-04-29 08:02 -21.26890 -41.07912 30137 ft 490 kts 36°
2026-04-29 08:02 -21.24251 -41.05593 30359 ft 491 kts 36°
2026-04-29 08:02 -21.21607 -41.03270 30584 ft 492 kts 36°
2026-04-29 08:02 -21.18986 -41.00968 30778 ft 493 kts 36°
2026-04-29 08:03 -21.16334 -40.98638 30923 ft 496 kts 36°
2026-04-29 08:03 -21.13655 -40.96285 30971 ft 499 kts 36°
2026-04-29 08:03 -21.08239 -40.91531 31065 ft 507 kts 37°
2026-04-29 08:04 -21.02775 -40.86737 31064 ft 508 kts 37°
2026-04-29 08:04 -20.97302 -40.81938 31072 ft 508 kts 37°
2026-04-29 08:05 -20.91841 -40.77155 31072 ft 506 kts 37°
2026-04-29 08:05 -20.86430 -40.72421 31074 ft 505 kts 37°
2026-04-29 08:06 -20.80978 -40.67667 31080 ft 504 kts 36°
2026-04-29 08:06 -20.75266 -40.63383 31087 ft 501 kts 31°
2026-04-29 08:07 -20.69413 -40.59319 31088 ft 501 kts 31°
2026-04-29 08:07 -20.63596 -40.55230 31089 ft 501 kts 31°
2026-04-29 08:08 -20.57826 -40.51123 31098 ft 502 kts 31°
2026-04-29 08:08 -20.51999 -40.46969 31087 ft 502 kts 31°
2026-04-29 08:09 -20.46189 -40.42834 31071 ft 502 kts 31°
2026-04-29 08:09 -20.40370 -40.38698 31064 ft 502 kts 32°
2026-04-29 08:10 -20.34548 -40.34564 31060 ft 503 kts 32°
2026-04-29 08:10 -20.28724 -40.30432 31050 ft 503 kts 32°
2026-04-29 08:11 -20.23241 -40.25779 31043 ft 506 kts 43°
2026-04-29 08:11 -20.18317 -40.20438 31048 ft 505 kts 44°
2026-04-29 08:12 -20.13339 -40.15154 31057 ft 505 kts 43°
2026-04-29 08:12 -20.08338 -40.09902 31064 ft 505 kts 43°
2026-04-29 08:13 -20.03369 -40.04689 31069 ft 505 kts 43°
2026-04-29 08:13 -19.98368 -39.99441 31076 ft 504 kts 43°
2026-04-29 08:14 -19.93376 -39.94205 31077 ft 504 kts 43°
2026-04-29 08:14 -19.88382 -39.88971 31072 ft 504 kts 43°
2026-04-29 08:15 -19.83388 -39.83743 31070 ft 504 kts 43°
2026-04-29 08:15 -19.78393 -39.78518 31076 ft 503 kts 43°
2026-04-29 08:16 -19.73460 -39.73310 31077 ft 503 kts 44°
2026-04-29 08:16 -19.68521 -39.68039 31076 ft 503 kts 44°
2026-04-29 08:17 -19.63584 -39.62777 31075 ft 503 kts 44°
2026-04-29 08:17 -19.58634 -39.57517 31072 ft 503 kts 44°
2026-04-29 08:18 -19.53691 -39.52272 31075 ft 502 kts 44°
2026-04-29 08:18 -19.48748 -39.47033 31075 ft 502 kts 44°
2026-04-29 08:19 -19.43831 -39.41825 31072 ft 502 kts 44°
2026-04-29 08:19 -19.38884 -39.36589 31074 ft 502 kts 44°
2026-04-29 08:20 -19.33939 -39.31361 31076 ft 502 kts 44°
2026-04-29 08:20 -19.28985 -39.26127 31070 ft 502 kts 44°
2026-04-29 08:21 -19.24036 -39.20904 31071 ft 502 kts 44°
2026-04-29 08:21 -19.19079 -39.15675 31068 ft 502 kts 44°
2026-04-29 08:22 -19.14162 -39.10494 31071 ft 502 kts 44°
2026-04-29 08:22 -19.09216 -39.05260 31074 ft 503 kts 44°
2026-04-29 08:23 -19.04285 -39.00015 31070 ft 503 kts 44°
2026-04-29 08:23 -18.99350 -38.94769 31068 ft 503 kts 44°
2026-04-29 08:24 -18.94415 -38.89534 31070 ft 503 kts 44°
2026-04-29 08:24 -18.89473 -38.84297 31067 ft 503 kts 44°
2026-04-29 08:25 -18.84529 -38.79062 31067 ft 503 kts 44°
2026-04-29 08:25 -18.79585 -38.73832 31069 ft 504 kts 44°
2026-04-29 08:26 -18.74662 -38.68629 31072 ft 504 kts 44°
2026-04-29 08:26 -18.69705 -38.63394 31073 ft 504 kts 44°
2026-04-29 08:27 -18.64742 -38.58156 31070 ft 505 kts 44°
2026-04-29 08:27 -18.59784 -38.52929 31069 ft 504 kts 44°
2026-04-29 08:28 -18.54807 -38.47708 31071 ft 504 kts 44°
2026-04-29 08:28 -18.49829 -38.42516 31072 ft 503 kts 44°
2026-04-29 08:29 -18.44883 -38.37359 31071 ft 502 kts 44°
2026-04-29 08:29 -18.39915 -38.32178 31070 ft 502 kts 44°
2026-04-29 08:30 -18.32468 -38.24419 31068 ft 501 kts 44°
2026-04-29 08:31 -18.27505 -38.19254 31069 ft 501 kts 44°
2026-04-29 08:31 -18.22544 -38.14093 31070 ft 501 kts 44°
2026-04-29 08:32 -18.17617 -38.08974 31073 ft 500 kts 44°
2026-04-29 08:32 -18.12661 -38.03829 31070 ft 500 kts 44°
2026-04-29 08:33 -18.07706 -37.98689 31071 ft 501 kts 44°
2026-04-29 08:33 -18.02734 -37.93534 31070 ft 501 kts 44°
2026-04-29 08:34 -17.97800 -37.88423 31068 ft 501 kts 44°
2026-04-29 08:34 -17.92834 -37.83290 31070 ft 500 kts 44°
2026-04-29 08:35 -17.87872 -37.78168 31067 ft 500 kts 44°
2026-04-29 08:35 -17.83710 -37.73873 31067 ft 500 kts 44°
2026-04-29 08:36 -17.78784 -37.68793 31067 ft 499 kts 44°
2026-04-29 08:36 -17.73832 -37.63688 31068 ft 499 kts 44°
2026-04-29 08:37 -17.68878 -37.58586 31068 ft 499 kts 44°
2026-04-29 08:37 -17.63921 -37.53486 31065 ft 499 kts 44°
2026-04-29 08:38 -17.58968 -37.48393 31068 ft 499 kts 44°
2026-04-29 08:38 -17.54008 -37.43297 31071 ft 498 kts 44°
2026-04-29 08:39 -17.49091 -37.38251 31067 ft 498 kts 44°
2026-04-29 08:39 -17.44125 -37.33157 31065 ft 498 kts 44°
2026-04-29 08:40 -17.39170 -37.28080 31066 ft 498 kts 44°
2026-04-29 08:40 -17.34206 -37.22996 31065 ft 498 kts 44°
2026-04-29 08:41 -17.29252 -37.17927 31067 ft 498 kts 44°
2026-04-29 08:41 -17.24284 -37.12848 31064 ft 498 kts 44°
2026-04-29 08:42 -17.19353 -37.07811 31058 ft 498 kts 44°
2026-04-29 08:42 -17.14383 -37.02737 31060 ft 498 kts 44°
2026-04-29 08:43 -17.09417 -36.97672 31058 ft 498 kts 44°
2026-04-29 08:43 -17.04454 -36.92614 31060 ft 498 kts 44°
2026-04-29 08:44 -16.99517 -36.87587 31060 ft 498 kts 44°
2026-04-29 08:44 -16.94556 -36.82538 31057 ft 498 kts 44°
2026-04-29 08:45 -16.89576 -36.77474 31058 ft 498 kts 44°
2026-04-29 08:45 -16.84603 -36.72423 31060 ft 499 kts 44°
2026-04-29 08:46 -16.79660 -36.67404 31061 ft 499 kts 44°
2026-04-29 08:46 -16.74681 -36.62353 31061 ft 499 kts 44°
2026-04-29 08:47 -16.69692 -36.57296 31060 ft 499 kts 44°
2026-04-29 08:47 -16.64708 -36.52247 31060 ft 500 kts 44°
2026-04-29 08:48 -16.59717 -36.47196 31061 ft 500 kts 44°
2026-04-29 08:48 -16.54728 -36.42151 31056 ft 500 kts 44°
2026-04-29 08:49 -16.49735 -36.37105 31056 ft 500 kts 44°
2026-04-29 08:49 -16.44738 -36.32060 31055 ft 499 kts 44°
2026-04-29 08:50 -16.39744 -36.27021 31061 ft 499 kts 44°
2026-04-29 08:50 -16.34791 -36.22027 31057 ft 499 kts 44°
2026-04-29 08:51 -16.29801 -36.16999 31058 ft 499 kts 44°
2026-04-29 08:51 -16.24806 -36.11970 31059 ft 499 kts 44°
2026-04-29 08:52 -16.19815 -36.06949 31059 ft 499 kts 44°
2026-04-29 08:52 -16.14830 -36.01937 31053 ft 499 kts 44°
2026-04-29 08:53 -16.09838 -35.96923 31052 ft 498 kts 45°
2026-04-29 08:53 -16.04848 -35.91914 31057 ft 498 kts 45°
2026-04-29 08:54 -15.99861 -35.86911 31054 ft 498 kts 44°
2026-04-29 08:54 -15.94872 -35.81912 31052 ft 498 kts 44°
2026-04-29 08:55 -15.89908 -35.76942 31051 ft 497 kts 44°
2026-04-29 08:55 -15.84926 -35.71955 31052 ft 497 kts 45°
2026-04-29 08:56 -15.79945 -35.66973 31051 ft 497 kts 45°
2026-04-29 08:56 -15.74958 -35.61988 31051 ft 497 kts 45°
2026-04-29 08:57 -15.69978 -35.57017 31049 ft 497 kts 45°
2026-04-29 08:57 -15.65000 -35.52048 31048 ft 496 kts 45°
2026-04-29 08:58 -15.60018 -35.47078 31050 ft 496 kts 45°
2026-04-29 08:58 -15.55042 -35.42118 31050 ft 496 kts 45°
2026-04-29 08:59 -15.50092 -35.37191 31047 ft 496 kts 45°
2026-04-29 08:59 -15.45112 -35.32235 31046 ft 496 kts 45°
2026-04-29 09:00 -15.40130 -35.27278 31051 ft 496 kts 45°
2026-04-29 09:00 -15.35147 -35.22326 31048 ft 496 kts 45°
2026-04-29 09:01 -15.30159 -35.17373 31047 ft 496 kts 45°
2026-04-29 09:01 -15.25206 -35.12457 31045 ft 496 kts 45°
2026-04-29 09:02 -15.20225 -35.07520 31049 ft 496 kts 45°
2026-04-29 09:02 -15.15245 -35.02587 31050 ft 496 kts 45°
2026-04-29 09:03 -15.10259 -34.97645 31048 ft 496 kts 45°
2026-04-29 09:03 -15.05269 -34.92704 31042 ft 496 kts 45°
2026-04-29 09:04 -15.00276 -34.87770 31042 ft 496 kts 45°
2026-04-29 09:04 -14.95291 -34.82840 31041 ft 496 kts 45°
2026-04-29 09:05 -14.90297 -34.77905 31041 ft 496 kts 45°
2026-04-29 09:05 -14.85307 -34.72984 31040 ft 496 kts 45°
2026-04-29 09:06 -14.80310 -34.68056 31037 ft 496 kts 45°
2026-04-29 09:06 -14.75345 -34.63162 31039 ft 496 kts 45°
2026-04-29 09:07 -14.70347 -34.58238 31035 ft 496 kts 45°
2026-04-29 09:07 -14.65353 -34.53322 31039 ft 496 kts 45°
2026-04-29 09:08 -14.60356 -34.48405 31038 ft 496 kts 45°
2026-04-29 09:08 -14.55355 -34.43490 31039 ft 496 kts 45°
2026-04-29 09:09 -14.50359 -34.38582 31039 ft 496 kts 45°
2026-04-29 09:09 -14.45352 -34.33666 31036 ft 496 kts 45°
2026-04-29 09:10 -14.40352 -34.28759 31035 ft 496 kts 45°
2026-04-29 09:10 -14.35379 -34.23883 31032 ft 496 kts 45°
2026-04-29 09:11 -14.30368 -34.18975 31033 ft 496 kts 45°
2026-04-29 09:11 -14.25360 -34.14069 31029 ft 496 kts 45°
2026-04-29 09:12 -14.20347 -34.09161 31029 ft 497 kts 45°
2026-04-29 09:12 -14.15331 -34.04255 31030 ft 497 kts 45°
2026-04-29 09:13 -14.10314 -33.99355 31031 ft 497 kts 45°
2026-04-29 09:13 -14.05331 -33.94491 31031 ft 497 kts 45°
2026-04-29 09:14 -14.00311 -33.89594 31028 ft 497 kts 45°
2026-04-29 09:14 -13.95288 -33.84693 31026 ft 497 kts 45°
2026-04-29 09:15 -13.90268 -33.79801 31025 ft 497 kts 45°
2026-04-29 09:15 -13.85249 -33.74909 31024 ft 497 kts 45°
2026-04-29 09:16 -13.80232 -33.70024 31026 ft 497 kts 45°
2026-04-29 09:16 -13.75236 -33.65165 31024 ft 497 kts 45°
2026-04-29 09:17 -13.70213 -33.60281 31027 ft 497 kts 45°
2026-04-29 09:17 -13.65189 -33.55399 31025 ft 497 kts 45°
2026-04-29 09:18 -13.60169 -33.50524 31025 ft 497 kts 45°
2026-04-29 09:18 -13.55145 -33.45648 31023 ft 497 kts 45°
2026-04-29 09:19 -13.50114 -33.40767 31021 ft 497 kts 45°
2026-04-29 09:19 -13.45116 -33.35922 31021 ft 497 kts 45°
2026-04-29 09:20 -13.40080 -33.31042 31024 ft 497 kts 45°
2026-04-29 09:20 -13.35048 -33.26171 31021 ft 497 kts 45°
2026-04-29 09:21 -13.30014 -33.21299 31022 ft 497 kts 45°
2026-04-29 09:21 -13.24982 -33.16433 31021 ft 497 kts 45°
2026-04-29 09:22 -13.19980 -33.11600 31022 ft 497 kts 45°
2026-04-29 09:22 -13.14946 -33.06737 31019 ft 497 kts 45°
2026-04-29 09:23 -13.10754 -33.02690 31018 ft 497 kts 45°
2026-04-29 09:23 -13.05711 -32.97824 31020 ft 497 kts 45°
2026-04-29 09:24 -13.00671 -32.92963 31019 ft 497 kts 45°
2026-04-29 09:24 -12.95634 -32.88109 31018 ft 497 kts 45°
2026-04-29 09:25 -12.90588 -32.83249 31017 ft 497 kts 45°
2026-04-29 09:25 -12.85575 -32.78424 31016 ft 497 kts 45°
2026-04-29 09:26 -12.80535 -32.73575 31015 ft 497 kts 45°
2026-04-29 09:26 -12.75492 -32.68726 31015 ft 497 kts 45°
2026-04-29 09:27 -12.70448 -32.63879 31015 ft 497 kts 45°
2026-04-29 09:27 -12.65407 -32.59038 31015 ft 497 kts 45°
2026-04-29 09:28 -12.60360 -32.54193 31013 ft 497 kts 45°
2026-04-29 09:28 -12.55310 -32.49349 31014 ft 497 kts 45°
2026-04-29 09:29 -12.50260 -32.44507 31012 ft 497 kts 45°
2026-04-29 09:29 -12.42719 -32.37281 31008 ft 497 kts 45°
2026-04-29 09:30 -12.37670 -32.32448 31008 ft 497 kts 45°
2026-04-29 09:30 -12.32617 -32.27612 31007 ft 497 kts 45°
2026-04-29 09:31 -12.27557 -32.22774 31007 ft 497 kts 45°
2026-04-29 09:31 -12.22533 -32.17971 31009 ft 497 kts 45°
2026-04-29 09:32 -12.17485 -32.13149 31009 ft 497 kts 45°
2026-04-29 09:32 -12.12432 -32.08323 31008 ft 497 kts 45°
2026-04-29 09:33 -12.07379 -32.03502 31006 ft 497 kts 45°
2026-04-29 09:33 -12.02317 -31.98674 31004 ft 497 kts 45°
2026-04-29 09:34 -11.97265 -31.93858 31004 ft 497 kts 45°
2026-04-29 09:34 -11.92242 -31.89072 31001 ft 496 kts 45°
2026-04-29 09:35 -11.87193 -31.84265 31001 ft 496 kts 45°
2026-04-29 09:35 -11.82141 -31.79457 30999 ft 496 kts 45°
2026-04-29 09:36 -11.77092 -31.74654 31000 ft 496 kts 45°
2026-04-29 09:36 -11.72046 -31.69856 31000 ft 495 kts 45°
2026-04-29 09:37 -11.66994 -31.65056 31000 ft 495 kts 45°
2026-04-29 09:37 -11.61988 -31.60301 31000 ft 495 kts 45°
2026-04-29 09:38 -11.56938 -31.55507 31001 ft 495 kts 45°
2026-04-29 09:38 -11.51900 -31.50728 30998 ft 495 kts 45°
2026-04-29 09:39 -11.46865 -31.45953 30998 ft 494 kts 45°
2026-04-29 09:39 -11.41823 -31.41174 30997 ft 494 kts 45°
2026-04-29 09:40 -11.36783 -31.36400 30996 ft 494 kts 45°
2026-04-29 09:40 -11.31776 -31.31659 30994 ft 494 kts 45°
2026-04-29 09:41 -11.26738 -31.26891 30995 ft 494 kts 45°
2026-04-29 09:41 -11.21700 -31.22126 30994 ft 494 kts 45°
2026-04-29 09:42 -11.16664 -31.17365 30991 ft 493 kts 45°
2026-04-29 09:42 -11.11637 -31.12614 30992 ft 493 kts 45°
2026-04-29 09:43 -11.06611 -31.07868 30989 ft 493 kts 45°
2026-04-29 09:43 -11.01581 -31.03119 30989 ft 492 kts 45°
2026-04-29 09:44 -10.96561 -30.98383 30990 ft 492 kts 45°
2026-04-29 09:44 -10.91538 -30.93645 30987 ft 492 kts 45°
2026-04-29 09:45 -10.86520 -30.88915 30989 ft 491 kts 45°
2026-04-29 09:45 -10.81541 -30.84224 30989 ft 491 kts 45°
2026-04-29 09:46 -10.76532 -30.79507 30987 ft 490 kts 45°
2026-04-29 09:46 -10.71518 -30.74787 30988 ft 490 kts 45°
2026-04-29 09:47 -10.66514 -30.70078 30987 ft 490 kts 45°
2026-04-29 09:47 -10.61510 -30.65374 30987 ft 490 kts 45°
2026-04-29 09:48 -10.56507 -30.60671 30987 ft 490 kts 45°
2026-04-29 09:48 -10.51534 -30.55998 30988 ft 489 kts 44°
2026-04-29 09:49 -10.46536 -30.51305 30984 ft 489 kts 44°
2026-04-29 09:49 -10.41530 -30.46606 30986 ft 489 kts 44°
2026-04-29 09:50 -10.36524 -30.41909 30984 ft 489 kts 44°
2026-04-29 09:50 -10.31521 -30.37218 30985 ft 489 kts 44°
2026-04-29 09:51 -10.26556 -30.32562 30982 ft 489 kts 44°
2026-04-29 09:51 -10.21550 -30.27871 30990 ft 489 kts 44°
2026-04-29 09:52 -10.16550 -30.23189 30982 ft 489 kts 44°
2026-04-29 09:52 -10.11552 -30.18509 30984 ft 489 kts 44°
2026-04-29 09:53 -10.06556 -30.13831 30981 ft 489 kts 44°
2026-04-29 09:53 -10.01559 -30.09158 30981 ft 489 kts 44°
2026-04-29 09:54 -9.96553 -30.04481 30983 ft 488 kts 44°
2026-04-29 09:54 -9.91552 -29.99814 30982 ft 488 kts 44°
2026-04-29 09:55 -9.86590 -29.95179 30978 ft 488 kts 44°
2026-04-29 09:55 -9.81585 -29.90506 30980 ft 488 kts 44°
2026-04-29 09:56 -9.76593 -29.85845 30981 ft 488 kts 44°
2026-04-29 09:56 -9.71594 -29.81184 30980 ft 488 kts 44°
2026-04-29 09:57 -9.66625 -29.76551 30980 ft 488 kts 44°
2026-04-29 09:57 -9.61631 -29.71895 30978 ft 487 kts 44°
2026-04-29 09:58 -9.56641 -29.67248 30978 ft 487 kts 44°
2026-04-29 09:58 -9.51652 -29.62602 30985 ft 487 kts 44°
2026-04-29 09:59 -9.46655 -29.57953 30980 ft 487 kts 44°
2026-04-29 09:59 -9.41671 -29.53316 30982 ft 486 kts 44°
2026-04-29 10:00 -9.36688 -29.48681 30980 ft 486 kts 44°
2026-04-29 10:00 -9.31738 -29.44078 30976 ft 486 kts 44°
2026-04-29 10:01 -9.26753 -29.39448 30981 ft 486 kts 44°
2026-04-29 10:01 -9.21777 -29.34825 30978 ft 485 kts 44°
2026-04-29 10:02 -9.16797 -29.30200 30980 ft 485 kts 44°
2026-04-29 10:02 -9.11811 -29.25571 30977 ft 486 kts 44°
2026-04-29 10:03 -9.06826 -29.20945 30976 ft 486 kts 44°
2026-04-29 10:03 -9.01838 -29.16320 30977 ft 486 kts 44°
2026-04-29 10:04 -8.96897 -29.11740 30977 ft 485 kts 44°
2026-04-29 10:04 -8.91914 -29.07122 30976 ft 485 kts 44°
2026-04-29 10:05 -8.86938 -29.02512 30976 ft 485 kts 44°
2026-04-29 10:05 -8.81953 -28.97896 30976 ft 485 kts 44°
2026-04-29 10:06 -8.76977 -28.93289 30974 ft 484 kts 44°
2026-04-29 10:06 -8.72036 -28.88718 30976 ft 484 kts 44°
2026-04-29 10:07 -8.67077 -28.84132 30974 ft 483 kts 44°
2026-04-29 10:07 -8.62111 -28.79541 30977 ft 483 kts 44°
2026-04-29 10:08 -8.57176 -28.74978 30968 ft 483 kts 44°
2026-04-29 10:08 -8.52216 -28.70393 30973 ft 483 kts 44°
2026-04-29 10:09 -8.47252 -28.65809 30978 ft 484 kts 44°
2026-04-29 10:09 -8.42282 -28.61222 30977 ft 484 kts 44°
2026-04-29 10:10 -8.37322 -28.56645 30974 ft 484 kts 44°
2026-04-29 10:10 -8.32354 -28.52062 30976 ft 484 kts 44°
2026-04-29 10:11 -8.28219 -28.48247 30973 ft 484 kts 44°
2026-04-29 10:11 -8.23249 -28.43665 30977 ft 484 kts 44°
2026-04-29 10:12 -8.18275 -28.39081 30975 ft 484 kts 44°
2026-04-29 10:12 -8.13294 -28.34492 30972 ft 484 kts 44°
2026-04-29 10:13 -8.08319 -28.29909 30973 ft 484 kts 44°
2026-04-29 10:13 -8.03347 -28.25332 30972 ft 484 kts 44°
2026-04-29 10:14 -7.98368 -28.20750 30967 ft 484 kts 44°
2026-04-29 10:14 -7.93427 -28.16204 30971 ft 484 kts 44°
2026-04-29 10:15 -7.88443 -28.11620 30972 ft 484 kts 44°
2026-04-29 10:15 -7.83459 -28.07038 30970 ft 484 kts 44°
2026-04-29 10:16 -7.78493 -28.02473 30969 ft 484 kts 44°
2026-04-29 10:16 -7.73550 -27.97932 30971 ft 484 kts 44°
2026-04-29 10:17 -7.68576 -27.93363 30969 ft 484 kts 44°
2026-04-29 10:17 -7.63603 -27.88797 30970 ft 484 kts 44°
2026-04-29 10:18 -7.58627 -27.84230 30970 ft 484 kts 44°
2026-04-29 10:18 -7.53645 -27.79660 30973 ft 484 kts 44°
2026-04-29 10:19 -7.48666 -27.75092 30973 ft 484 kts 44°
2026-04-29 10:19 -7.43689 -27.70528 30971 ft 484 kts 44°
2026-04-29 10:20 -7.38712 -27.65965 30970 ft 484 kts 44°
2026-04-29 10:20 -7.33725 -27.61396 30973 ft 484 kts 44°
2026-04-29 10:21 -7.28769 -27.56856 30973 ft 484 kts 44°
2026-04-29 10:21 -7.23780 -27.52286 30973 ft 485 kts 44°
2026-04-29 10:22 -7.18774 -27.47703 30973 ft 485 kts 44°
2026-04-29 10:22 -7.13777 -27.43129 30972 ft 485 kts 44°
2026-04-29 10:23 -7.08782 -27.38558 30972 ft 485 kts 44°
2026-04-29 10:23 -7.03779 -27.33983 30969 ft 486 kts 44°
2026-04-29 10:24 -6.98807 -27.29436 30969 ft 486 kts 44°
2026-04-29 10:24 -6.93807 -27.24866 30974 ft 486 kts 44°
2026-04-29 10:25 -6.88807 -27.20296 30973 ft 485 kts 44°
2026-04-29 10:25 -6.83805 -27.15726 30974 ft 485 kts 44°
2026-04-29 10:26 -6.78807 -27.11162 30973 ft 485 kts 44°
2026-04-29 10:26 -6.73806 -27.06595 30969 ft 486 kts 43°
2026-04-29 10:27 -6.66278 -26.99724 30972 ft 487 kts 43°
2026-04-29 10:28 -6.61250 -26.95136 30970 ft 488 kts 43°
2026-04-29 10:28 -6.56225 -26.90553 30970 ft 488 kts 43°
2026-04-29 10:29 -6.51193 -26.85965 30970 ft 488 kts 43°
2026-04-29 10:29 -6.46198 -26.81412 30970 ft 487 kts 43°
2026-04-29 10:30 -6.41177 -26.76837 30972 ft 487 kts 44°
2026-04-29 10:30 -6.36153 -26.72258 30970 ft 487 kts 44°
2026-04-29 10:31 -6.31137 -26.67690 30971 ft 486 kts 43°
2026-04-29 10:31 -6.26143 -26.63142 30971 ft 486 kts 43°
2026-04-29 10:32 -6.21131 -26.58580 30972 ft 486 kts 43°
2026-04-29 10:32 -6.16111 -26.54011 30971 ft 486 kts 43°
2026-04-29 10:33 -6.11139 -26.49486 30967 ft 486 kts 43°
2026-04-29 10:33 -6.06126 -26.44926 30968 ft 486 kts 43°
2026-04-29 10:34 -6.01118 -26.40371 30968 ft 486 kts 43°
2026-04-29 10:34 -5.96094 -26.35803 30972 ft 486 kts 43°
2026-04-29 10:35 -5.91078 -26.31243 30970 ft 486 kts 43°
2026-04-29 10:35 -5.86060 -26.26682 30969 ft 486 kts 43°
2026-04-29 10:36 -5.81032 -26.22114 30971 ft 486 kts 43°
2026-04-29 10:36 -5.76042 -26.17585 30970 ft 486 kts 43°
2026-04-29 10:37 -5.71017 -26.13026 30971 ft 487 kts 43°
2026-04-29 10:37 -5.65995 -26.08469 30968 ft 487 kts 43°
2026-04-29 10:38 -5.60966 -26.03905 30968 ft 487 kts 43°
2026-04-29 10:38 -5.55943 -25.99348 30970 ft 487 kts 43°
2026-04-29 10:39 -5.50917 -25.94789 30971 ft 487 kts 43°
2026-04-29 10:39 -5.45916 -25.90255 30964 ft 487 kts 43°
2026-04-29 10:40 -5.40887 -25.85695 30968 ft 487 kts 43°
2026-04-29 10:40 -5.35853 -25.81133 30968 ft 487 kts 43°
2026-04-29 10:41 -5.30817 -25.76569 30969 ft 488 kts 43°
2026-04-29 10:41 -5.25778 -25.72003 30968 ft 488 kts 43°
2026-04-29 10:42 -5.20736 -25.67437 30967 ft 488 kts 43°
2026-04-29 10:42 -5.15729 -25.62903 30968 ft 488 kts 43°
2026-04-29 10:43 -5.10688 -25.58339 30967 ft 488 kts 43°
2026-04-29 10:43 -5.05646 -25.53776 30962 ft 488 kts 43°
2026-04-29 10:44 -5.00603 -25.49212 30964 ft 488 kts 43°
2026-04-29 10:44 -4.95554 -25.44644 30969 ft 488 kts 43°
2026-04-29 10:45 -4.90504 -25.40076 30970 ft 488 kts 43°
2026-04-29 10:45 -4.85455 -25.35509 30967 ft 489 kts 43°
2026-04-29 10:46 -4.80405 -25.30943 30965 ft 489 kts 43°
2026-04-29 10:46 -4.75388 -25.26409 30968 ft 489 kts 43°
2026-04-29 10:47 -4.70327 -25.21835 30966 ft 489 kts 43°
2026-04-29 10:47 -4.65275 -25.17270 30968 ft 489 kts 43°
2026-04-29 10:48 -4.60218 -25.12700 30971 ft 489 kts 43°
2026-04-29 10:48 -4.55160 -25.08132 30969 ft 489 kts 43°
2026-04-29 10:49 -4.50130 -25.03590 30967 ft 489 kts 43°
2026-04-29 10:49 -4.45069 -24.99020 30966 ft 489 kts 43°
2026-04-29 10:50 -4.40011 -24.94455 30967 ft 489 kts 43°
2026-04-29 10:50 -4.34948 -24.89886 30969 ft 489 kts 43°
2026-04-29 10:51 -4.29877 -24.85310 30970 ft 489 kts 43°
2026-04-29 10:51 -4.24848 -24.80773 30967 ft 489 kts 43°
2026-04-29 10:52 -4.19787 -24.76207 30967 ft 489 kts 43°
2026-04-29 10:52 -4.14725 -24.71642 30967 ft 489 kts 43°
2026-04-29 10:53 -4.09667 -24.67081 30967 ft 489 kts 43°
2026-04-29 10:53 -4.04612 -24.62524 30970 ft 489 kts 43°
2026-04-29 10:54 -3.99547 -24.57957 30967 ft 489 kts 43°
2026-04-29 10:54 -3.94486 -24.53397 30968 ft 489 kts 43°
2026-04-29 10:55 -3.89423 -24.48835 30966 ft 489 kts 43°
2026-04-29 10:55 -3.84393 -24.44302 30966 ft 489 kts 43°
2026-04-29 10:56 -3.79331 -24.39742 30971 ft 489 kts 43°
2026-04-29 10:56 -3.74266 -24.35181 30974 ft 490 kts 43°
2026-04-29 10:57 -3.69198 -24.30617 30969 ft 490 kts 43°
2026-04-29 10:57 -3.64120 -24.26044 30969 ft 490 kts 43°
2026-04-29 10:58 -3.59077 -24.21504 30967 ft 490 kts 43°
2026-04-29 10:58 -3.54009 -24.16940 30967 ft 490 kts 43°
2026-04-29 10:59 -3.48945 -24.12365 30966 ft 490 kts 44°
2026-04-29 10:59 -3.43925 -24.07739 30969 ft 490 kts 44°
2026-04-29 11:00 -3.38955 -24.03138 30971 ft 490 kts 44°
2026-04-29 11:00 -3.33947 -23.98512 30969 ft 490 kts 44°
2026-04-29 11:01 -3.28932 -23.93888 30971 ft 490 kts 44°
2026-04-29 11:01 -3.24755 -23.90040 30965 ft 490 kts 44°
2026-04-29 11:02 -3.19737 -23.85418 30971 ft 490 kts 44°
2026-04-29 11:02 -3.14722 -23.80799 30974 ft 490 kts 44°
2026-04-29 11:03 -3.09708 -23.76181 30966 ft 490 kts 44°
2026-04-29 11:03 -3.04707 -23.71575 30966 ft 490 kts 44°
2026-04-29 11:04 -2.99686 -23.66952 30967 ft 490 kts 44°
2026-04-29 11:04 -2.94670 -23.62334 30967 ft 490 kts 44°
2026-04-29 11:05 -2.89650 -23.57713 30964 ft 490 kts 44°
2026-04-29 11:05 -2.84640 -23.53102 30968 ft 489 kts 44°
2026-04-29 11:06 -2.79633 -23.48493 30967 ft 489 kts 44°
2026-04-29 11:06 -2.74627 -23.43887 30967 ft 489 kts 44°
2026-04-29 11:07 -2.69620 -23.39280 30964 ft 488 kts 44°
2026-04-29 11:07 -2.64621 -23.34681 30965 ft 488 kts 44°
2026-04-29 11:08 -2.59657 -23.30114 30965 ft 488 kts 44°
2026-04-29 11:08 -2.54665 -23.25523 30966 ft 487 kts 44°
2026-04-29 11:09 -2.49671 -23.20930 30968 ft 487 kts 43°
2026-04-29 11:09 -2.44679 -23.16339 30968 ft 487 kts 43°
2026-04-29 11:10 -2.39691 -23.11753 30966 ft 487 kts 43°
2026-04-29 11:10 -2.34726 -23.07188 30964 ft 487 kts 44°
2026-04-29 11:11 -2.29734 -23.02599 30964 ft 487 kts 43°
2026-04-29 11:11 -2.24739 -22.98008 30965 ft 487 kts 43°
2026-04-29 11:12 -2.19751 -22.93423 30968 ft 488 kts 43°
2026-04-29 11:12 -2.14754 -22.88831 30966 ft 488 kts 43°
2026-04-29 11:13 -2.09759 -22.84241 30964 ft 488 kts 43°
2026-04-29 11:13 -2.04756 -22.79644 30965 ft 488 kts 43°
2026-04-29 11:14 -1.99753 -22.75047 30965 ft 488 kts 43°
2026-04-29 11:14 -1.94758 -22.70458 30969 ft 488 kts 43°
2026-04-29 11:15 -1.89797 -22.65901 30965 ft 488 kts 43°
2026-04-29 11:15 -1.84801 -22.61312 30963 ft 488 kts 43°
2026-04-29 11:16 -1.79798 -22.56716 30965 ft 488 kts 43°
2026-04-29 11:16 -1.74801 -22.52127 30963 ft 488 kts 43°
2026-04-29 11:17 -1.69800 -22.47534 30963 ft 488 kts 43°
2026-04-29 11:17 -1.64801 -22.42944 30961 ft 488 kts 43°
2026-04-29 11:18 -1.59791 -22.38344 30963 ft 488 kts 43°
2026-04-29 11:18 -1.54789 -22.33751 30962 ft 489 kts 43°
2026-04-29 11:19 -1.49809 -22.29178 30960 ft 489 kts 43°
2026-04-29 11:19 -1.44797 -22.24577 30963 ft 489 kts 43°
2026-04-29 11:20 -1.39781 -22.19973 30966 ft 490 kts 43°
2026-04-29 11:20 -1.34759 -22.15364 30966 ft 490 kts 43°
2026-04-29 11:21 -1.29736 -22.10753 30965 ft 491 kts 43°
2026-04-29 11:21 -1.24697 -22.06129 30963 ft 491 kts 43°
2026-04-29 11:22 -1.19669 -22.01514 30959 ft 491 kts 43°
2026-04-29 11:22 -1.14664 -21.96921 30965 ft 491 kts 43°
2026-04-29 11:23 -1.09600 -21.92275 30963 ft 491 kts 43°
2026-04-29 11:23 -1.04566 -21.87655 30961 ft 491 kts 43°
2026-04-29 11:24 -0.99566 -21.83067 30964 ft 491 kts 43°
2026-04-29 11:24 -0.94531 -21.78447 30955 ft 491 kts 43°
2026-04-29 11:25 -0.89501 -21.73832 30953 ft 491 kts 43°
2026-04-29 11:25 -0.84463 -21.69211 30954 ft 491 kts 42°
2026-04-29 11:26 -0.76910 -21.62281 30956 ft 491 kts 42°
2026-04-29 11:26 -0.71910 -21.57695 30954 ft 491 kts 42°
2026-04-29 11:27 -0.66883 -21.53083 30951 ft 491 kts 42°
2026-04-29 11:27 -0.61853 -21.48469 30953 ft 491 kts 42°
2026-04-29 11:28 -0.56824 -21.43855 30953 ft 490 kts 42°
2026-04-29 11:28 -0.51796 -21.39244 30949 ft 490 kts 42°
2026-04-29 11:29 -0.46775 -21.34637 30953 ft 490 kts 42°
2026-04-29 11:29 -0.41783 -21.30059 30953 ft 490 kts 42°
2026-04-29 11:30 -0.36762 -21.25453 30956 ft 490 kts 42°
2026-04-29 11:30 -0.31737 -21.20845 30953 ft 490 kts 42°
2026-04-29 11:31 -0.26715 -21.16239 30954 ft 490 kts 42°
2026-04-29 11:31 -0.21693 -21.11633 30956 ft 490 kts 42°
2026-04-29 11:32 -0.16657 -21.07014 30955 ft 490 kts 42°
2026-04-29 11:32 -0.11659 -21.02430 30956 ft 491 kts 42°
2026-04-29 11:33 -0.06627 -20.97815 30957 ft 491 kts 42°
2026-04-29 11:33 -0.01594 -20.93199 30952 ft 491 kts 42°
2026-04-29 11:34 0.03445 -20.88577 30955 ft 491 kts 42°
2026-04-29 11:34 0.08485 -20.83955 30950 ft 492 kts 42°
2026-04-29 11:35 0.13519 -20.79337 30952 ft 491 kts 42°
2026-04-29 11:35 0.18559 -20.74715 30953 ft 491 kts 42°
2026-04-29 11:36 0.23601 -20.70090 30953 ft 491 kts 42°
2026-04-29 11:36 0.28596 -20.65509 30952 ft 491 kts 42°
2026-04-29 11:37 0.33629 -20.60892 30954 ft 491 kts 42°
2026-04-29 11:37 0.38665 -20.56273 30955 ft 491 kts 42°
2026-04-29 11:38 0.43719 -20.51638 30953 ft 491 kts 42°
2026-04-29 11:38 0.48757 -20.47017 30949 ft 491 kts 42°
2026-04-29 11:39 0.53795 -20.42396 30955 ft 491 kts 42°
2026-04-29 11:39 0.58828 -20.37778 30954 ft 491 kts 42°
2026-04-29 11:40 0.63839 -20.33181 30953 ft 491 kts 42°
2026-04-29 11:40 0.68870 -20.28567 30953 ft 491 kts 42°
2026-04-29 11:41 0.73900 -20.23952 30956 ft 490 kts 42°
2026-04-29 11:41 0.78892 -20.19372 30954 ft 490 kts 42°
2026-04-29 11:42 0.83918 -20.14760 30954 ft 489 kts 42°
2026-04-29 11:42 0.88933 -20.10158 30951 ft 489 kts 42°
2026-04-29 11:43 0.93951 -20.05553 30952 ft 489 kts 42°
2026-04-29 11:43 0.98932 -20.00976 30955 ft 490 kts 43°
2026-04-29 11:44 1.03463 -19.95883 30961 ft 491 kts 51°
2026-04-29 11:44 1.07727 -19.90529 30951 ft 492 kts 51°
2026-04-29 11:45 1.12034 -19.85195 30953 ft 493 kts 50°
2026-04-29 11:45 1.16363 -19.79868 30954 ft 494 kts 50°
2026-04-29 11:46 1.20700 -19.74537 30953 ft 494 kts 50°
2026-04-29 11:46 1.25038 -19.69202 30956 ft 494 kts 50°
2026-04-29 11:47 1.29372 -19.63869 30954 ft 494 kts 50°
2026-04-29 11:47 1.33672 -19.58577 30953 ft 493 kts 50°
2026-04-29 11:48 1.37992 -19.53261 30953 ft 492 kts 50°
2026-04-29 11:48 1.42309 -19.47947 30954 ft 492 kts 50°
2026-04-29 11:49 1.46620 -19.42639 30952 ft 491 kts 50°
2026-04-29 11:49 1.50923 -19.37342 30950 ft 491 kts 50°
2026-04-29 11:50 1.54506 -19.32930 30950 ft 491 kts 50°
2026-04-29 11:50 1.58802 -19.27642 30954 ft 490 kts 50°
2026-04-29 11:51 1.63104 -19.22346 30952 ft 490 kts 50°
2026-04-29 11:51 1.67406 -19.17049 30955 ft 490 kts 50°
2026-04-29 11:52 1.71681 -19.11784 30953 ft 490 kts 50°
2026-04-29 11:52 1.75979 -19.06491 30954 ft 490 kts 50°
2026-04-29 11:53 1.80286 -19.01186 30954 ft 490 kts 51°
2026-04-29 11:53 1.84585 -18.95891 30954 ft 490 kts 51°
2026-04-29 11:54 1.88886 -18.90592 30952 ft 490 kts 51°
2026-04-29 11:54 1.93186 -18.85295 30953 ft 490 kts 51°
2026-04-29 11:55 1.97489 -18.79994 30955 ft 490 kts 51°
2026-04-29 11:55 2.01762 -18.74727 30954 ft 490 kts 51°
2026-04-29 11:56 2.06058 -18.69434 30954 ft 490 kts 51°
2026-04-29 11:56 2.10363 -18.64129 30952 ft 490 kts 51°
2026-04-29 11:57 2.14654 -18.58839 30953 ft 490 kts 51°
2026-04-29 11:57 2.18948 -18.53546 30953 ft 489 kts 51°
2026-04-29 11:58 2.23239 -18.48256 30954 ft 489 kts 51°
2026-04-29 11:58 2.27526 -18.42971 30953 ft 489 kts 51°
2026-04-29 11:59 2.31812 -18.37686 30953 ft 489 kts 51°
2026-04-29 11:59 2.36101 -18.32397 30955 ft 489 kts 51°
2026-04-29 12:00 2.40363 -18.27141 30955 ft 489 kts 51°
2026-04-29 12:00 2.44654 -18.21849 30954 ft 489 kts 51°
2026-04-29 12:01 2.48936 -18.16565 30955 ft 489 kts 51°
2026-04-29 12:01 2.53223 -18.11277 30956 ft 489 kts 51°
2026-04-29 12:02 2.57502 -18.05997 30960 ft 489 kts 51°
2026-04-29 12:02 2.61764 -18.00738 30956 ft 489 kts 51°
2026-04-29 12:03 2.66045 -17.95454 30956 ft 489 kts 51°
2026-04-29 12:03 2.70326 -17.90171 30956 ft 488 kts 51°
2026-04-29 12:04 2.74598 -17.84896 30956 ft 488 kts 51°
2026-04-29 12:04 2.78876 -17.79614 30960 ft 488 kts 51°
2026-04-29 12:05 2.83147 -17.74342 30960 ft 488 kts 51°
2026-04-29 12:05 2.87421 -17.69063 30958 ft 488 kts 51°
2026-04-29 12:06 2.91691 -17.63789 30960 ft 487 kts 51°
2026-04-29 12:06 2.95934 -17.58547 30960 ft 487 kts 51°
2026-04-29 12:07 3.00208 -17.53268 30964 ft 487 kts 51°
2026-04-29 12:07 3.04477 -17.47993 30960 ft 488 kts 51°
2026-04-29 12:08 3.08748 -17.42715 30961 ft 488 kts 51°
2026-04-29 12:08 3.13029 -17.37424 30961 ft 488 kts 51°
2026-04-29 12:09 3.17296 -17.32149 30962 ft 488 kts 51°
2026-04-29 12:09 3.21562 -17.26875 30964 ft 488 kts 51°
2026-04-29 12:10 3.25837 -17.21589 30961 ft 488 kts 51°
2026-04-29 12:10 3.30082 -17.16339 30961 ft 488 kts 51°
2026-04-29 12:11 3.34359 -17.11050 30962 ft 488 kts 51°
2026-04-29 12:11 3.38636 -17.05758 30961 ft 489 kts 51°
2026-04-29 12:12 3.42920 -17.00457 30962 ft 489 kts 51°
2026-04-29 12:12 3.47193 -16.95170 30965 ft 489 kts 51°
2026-04-29 12:13 3.51478 -16.89867 30960 ft 489 kts 51°
2026-04-29 12:13 3.55759 -16.84568 30964 ft 489 kts 51°
2026-04-29 12:14 3.60014 -16.79300 30960 ft 489 kts 51°
2026-04-29 12:14 3.64300 -16.73993 30962 ft 489 kts 51°
2026-04-29 12:15 3.68586 -16.68685 30960 ft 489 kts 51°
2026-04-29 12:15 3.72867 -16.63382 30961 ft 489 kts 51°
2026-04-29 12:16 3.77144 -16.58083 30962 ft 490 kts 51°
2026-04-29 12:16 3.81428 -16.52775 30964 ft 490 kts 51°
2026-04-29 12:17 3.85713 -16.47465 30962 ft 490 kts 51°
2026-04-29 12:17 3.89963 -16.42196 30963 ft 490 kts 51°
2026-04-29 12:18 3.94255 -16.36875 30961 ft 490 kts 51°
2026-04-29 12:18 3.98545 -16.31556 30961 ft 490 kts 51°
2026-04-29 12:19 4.02835 -16.26236 30962 ft 490 kts 51°
2026-04-29 12:19 4.07094 -16.20952 30962 ft 490 kts 51°
2026-04-29 12:20 4.11386 -16.15628 30962 ft 490 kts 51°
2026-04-29 12:20 4.15668 -16.10314 30962 ft 490 kts 51°
2026-04-29 12:21 4.19954 -16.04995 30962 ft 490 kts 51°
2026-04-29 12:21 4.24217 -15.99702 30963 ft 490 kts 51°
2026-04-29 12:22 4.28509 -15.94373 30962 ft 490 kts 51°
2026-04-29 12:22 4.32791 -15.89055 30961 ft 490 kts 51°
2026-04-29 12:23 4.37073 -15.83737 30963 ft 490 kts 51°
2026-04-29 12:23 4.41327 -15.78452 30961 ft 490 kts 51°
2026-04-29 12:24 4.45606 -15.73135 30960 ft 490 kts 51°
2026-04-29 12:24 4.49884 -15.67817 30962 ft 490 kts 51°
2026-04-29 12:25 4.54169 -15.62491 30964 ft 490 kts 51°
2026-04-29 12:26 4.60586 -15.54512 30961 ft 490 kts 51°
2026-04-29 12:26 4.64864 -15.49190 30961 ft 490 kts 51°
2026-04-29 12:27 4.69142 -15.43868 30962 ft 490 kts 51°
2026-04-29 12:27 4.73419 -15.38546 30963 ft 490 kts 51°
2026-04-29 12:28 4.77694 -15.33226 30960 ft 490 kts 51°
2026-04-29 12:28 4.81968 -15.27905 30962 ft 490 kts 51°
2026-04-29 12:29 4.86215 -15.22617 30963 ft 489 kts 51°
2026-04-29 12:29 4.90494 -15.17287 30962 ft 489 kts 51°
2026-04-29 12:30 4.94767 -15.11964 30963 ft 489 kts 51°
2026-04-29 12:30 4.99020 -15.06665 30961 ft 489 kts 51°
2026-04-29 12:31 5.03291 -15.01343 30961 ft 489 kts 51°
2026-04-29 12:31 5.07561 -14.96019 30964 ft 490 kts 51°
2026-04-29 12:32 5.11832 -14.90694 30966 ft 490 kts 51°
2026-04-29 12:32 5.16109 -14.85360 30961 ft 490 kts 51°
2026-04-29 12:33 5.20377 -14.80035 30963 ft 490 kts 51°
2026-04-29 12:33 5.24628 -14.74732 30968 ft 490 kts 51°
2026-04-29 12:34 5.28907 -14.69392 30966 ft 490 kts 51°
2026-04-29 12:34 5.33178 -14.64059 30968 ft 490 kts 51°
2026-04-29 12:35 5.37447 -14.58729 30960 ft 490 kts 51°
2026-04-29 12:35 5.41714 -14.53399 30970 ft 490 kts 51°
2026-04-29 12:36 5.45958 -14.48097 30965 ft 490 kts 51°
2026-04-29 12:36 5.50224 -14.42767 30959 ft 489 kts 51°
2026-04-29 12:37 5.53770 -14.38334 30962 ft 489 kts 51°
2026-04-29 12:37 5.58027 -14.33012 30966 ft 489 kts 51°
2026-04-29 12:38 5.62277 -14.27697 30967 ft 488 kts 51°
2026-04-29 12:38 5.66533 -14.22374 30963 ft 488 kts 51°
2026-04-29 12:39 5.70779 -14.17061 30962 ft 488 kts 51°
2026-04-29 12:39 5.75028 -14.11743 30967 ft 487 kts 51°
2026-04-29 12:40 5.79275 -14.06427 30965 ft 487 kts 51°
2026-04-29 12:40 5.83513 -14.01121 30961 ft 487 kts 51°
2026-04-29 12:41 5.87752 -13.95811 30958 ft 487 kts 51°
2026-04-29 12:41 5.91991 -13.90500 30960 ft 487 kts 51°
2026-04-29 12:42 5.96226 -13.85193 30955 ft 487 kts 51°
2026-04-29 12:42 6.00459 -13.79887 30962 ft 486 kts 51°
2026-04-29 12:43 6.04690 -13.74582 30959 ft 486 kts 51°
2026-04-29 12:43 6.08894 -13.69308 30956 ft 486 kts 51°
2026-04-29 12:44 6.13127 -13.63998 30952 ft 487 kts 51°
2026-04-29 12:44 6.17356 -13.58692 30957 ft 487 kts 50°
2026-04-29 12:45 6.21595 -13.53371 30955 ft 487 kts 50°
2026-04-29 12:45 6.25829 -13.48054 30956 ft 487 kts 50°
2026-04-29 12:46 6.30061 -13.42738 30961 ft 487 kts 50°
2026-04-29 12:46 6.34298 -13.37415 30949 ft 488 kts 50°
2026-04-29 12:47 6.38518 -13.32112 30954 ft 488 kts 50°
2026-04-29 12:47 6.42755 -13.26786 30955 ft 488 kts 50°
2026-04-29 12:48 6.46991 -13.21459 30955 ft 488 kts 50°
2026-04-29 12:48 6.51233 -13.16123 30956 ft 488 kts 50°
2026-04-29 12:49 6.55476 -13.10784 30957 ft 488 kts 50°
2026-04-29 12:49 6.59712 -13.05453 30956 ft 488 kts 50°
2026-04-29 12:50 6.63951 -13.00115 30956 ft 488 kts 50°
2026-04-29 12:50 6.68170 -12.94802 30954 ft 488 kts 50°
2026-04-29 12:51 6.72411 -12.89460 30954 ft 488 kts 50°
2026-04-29 12:51 6.76657 -12.84110 30949 ft 488 kts 50°
2026-04-29 12:52 6.80899 -12.78762 30957 ft 488 kts 50°
2026-04-29 12:52 6.85140 -12.73413 30957 ft 489 kts 50°
2026-04-29 12:53 6.89377 -12.68069 30958 ft 489 kts 50°
2026-04-29 12:53 6.93616 -12.62721 30953 ft 489 kts 50°
2026-04-29 12:54 6.97862 -12.57362 30954 ft 488 kts 50°
2026-04-29 12:54 7.02070 -12.52049 30955 ft 488 kts 50°
2026-04-29 12:55 7.06302 -12.46704 30951 ft 488 kts 50°
2026-04-29 12:55 7.10548 -12.41340 30953 ft 488 kts 50°
2026-04-29 12:56 7.14781 -12.35990 30950 ft 488 kts 50°
2026-04-29 12:56 7.19003 -12.30652 30947 ft 487 kts 50°
2026-04-29 12:57 7.23232 -12.25304 30943 ft 487 kts 50°
2026-04-29 12:57 7.27422 -12.20003 30943 ft 487 kts 50°
2026-04-29 12:58 7.31641 -12.14664 30942 ft 487 kts 50°
2026-04-29 12:58 7.35857 -12.09326 30934 ft 487 kts 50°
2026-04-29 12:59 7.40075 -12.03986 30936 ft 487 kts 50°
2026-04-29 12:59 7.44291 -11.98648 32190 ft 485 kts 51°
2026-04-29 12:59 7.46388 -11.95990 31910 ft 481 kts 51°
2026-04-29 13:00 7.48455 -11.93369 31667 ft 478 kts 51°
2026-04-29 13:00 7.50518 -11.90752 31434 ft 476 kts 51°
2026-04-29 13:00 7.52578 -11.88139 31227 ft 474 kts 51°
2026-04-29 13:00 7.54602 -11.85573 31122 ft 472 kts 51°
2026-04-29 13:01 7.56652 -11.82973 31086 ft 475 kts 51°
2026-04-29 13:01 7.60800 -11.77713 29775 ft 480 kts 51°
2026-04-29 13:01 7.62909 -11.75038 30049 ft 480 kts 51°
2026-04-29 13:02 7.64959 -11.72436 30268 ft 480 kts 51°
2026-04-29 13:02 7.67040 -11.69796 30498 ft 481 kts 51°
2026-04-29 13:02 7.69122 -11.67154 30658 ft 483 kts 51°
2026-04-29 13:02 7.71217 -11.64495 30768 ft 486 kts 51°
2026-04-29 13:03 7.73330 -11.61813 30810 ft 489 kts 51°
2026-04-29 13:03 7.77547 -11.56453 30870 ft 484 kts 51°
2026-04-29 13:04 7.81705 -11.51167 30881 ft 480 kts 51°
2026-04-29 13:04 7.85858 -11.45889 30889 ft 480 kts 51°
2026-04-29 13:05 7.89990 -11.40631 30881 ft 481 kts 51°
2026-04-29 13:05 7.94147 -11.35345 30884 ft 481 kts 51°
2026-04-29 13:06 7.98315 -11.30043 30883 ft 481 kts 51°
2026-04-29 13:06 8.02480 -11.24744 30901 ft 482 kts 51°
2026-04-29 13:07 8.06643 -11.19439 30913 ft 482 kts 51°
2026-04-29 13:07 8.10808 -11.14125 30903 ft 483 kts 51°
2026-04-29 13:08 8.14962 -11.08837 30908 ft 483 kts 51°
2026-04-29 13:08 8.19140 -11.03510 30908 ft 483 kts 51°
2026-04-29 13:09 8.23311 -10.98194 30909 ft 483 kts 51°
2026-04-29 13:09 8.27477 -10.92874 30906 ft 482 kts 51°
2026-04-29 13:10 8.31618 -10.87589 30900 ft 482 kts 51°
2026-04-29 13:10 8.35775 -10.82280 30917 ft 481 kts 51°
2026-04-29 13:11 8.39928 -10.76974 30907 ft 481 kts 51°
2026-04-29 13:11 8.44083 -10.71665 30905 ft 481 kts 51°
2026-04-29 13:12 8.48213 -10.66388 30907 ft 482 kts 51°
2026-04-29 13:12 8.52368 -10.61075 30912 ft 482 kts 51°
2026-04-29 13:13 8.56526 -10.55751 30915 ft 482 kts 51°
2026-04-29 13:13 8.60697 -10.50416 30920 ft 482 kts 51°
2026-04-29 13:14 8.64853 -10.45094 30914 ft 482 kts 51°
2026-04-29 13:14 8.68987 -10.39800 30917 ft 483 kts 51°
2026-04-29 13:15 8.73148 -10.34467 30917 ft 483 kts 51°
2026-04-29 13:15 8.77314 -10.29125 30920 ft 483 kts 51°
2026-04-29 13:16 8.81490 -10.23770 30922 ft 484 kts 51°
2026-04-29 13:16 8.85628 -10.18461 30918 ft 484 kts 51°
2026-04-29 13:17 8.89797 -10.13110 30921 ft 484 kts 51°
2026-04-29 13:17 8.93968 -10.07752 30919 ft 484 kts 51°
2026-04-29 13:18 8.98134 -10.02401 30915 ft 484 kts 51°
2026-04-29 13:18 9.02713 -9.97410 30915 ft 484 kts 41°
2026-04-29 13:19 9.07769 -9.92975 30909 ft 484 kts 41°
2026-04-29 13:19 9.12830 -9.88466 30911 ft 484 kts 41°
2026-04-29 13:20 9.17019 -9.84700 30909 ft 484 kts 41°
2026-04-29 13:20 9.22050 -9.80165 30905 ft 484 kts 41°
2026-04-29 13:21 9.27082 -9.75627 30904 ft 484 kts 41°
2026-04-29 13:21 9.32106 -9.71097 30905 ft 483 kts 41°
2026-04-29 13:22 9.37130 -9.66566 30899 ft 483 kts 41°
2026-04-29 13:22 9.42147 -9.62041 30895 ft 483 kts 41°
2026-04-29 13:23 9.47163 -9.57514 30894 ft 483 kts 41°
2026-04-29 13:23 9.52177 -9.52986 30889 ft 483 kts 41°
2026-04-29 13:24 9.57169 -9.48477 30887 ft 483 kts 41°
2026-04-29 13:24 9.62183 -9.43945 30887 ft 483 kts 41°
2026-04-29 13:25 9.67195 -9.39415 30878 ft 483 kts 41°
2026-04-29 13:25 9.74725 -9.32604 30877 ft 483 kts 41°
2026-04-29 13:26 9.79735 -9.28070 30875 ft 483 kts 41°
2026-04-29 13:26 9.84713 -9.23563 30874 ft 483 kts 41°
2026-04-29 13:27 9.89732 -9.19018 30873 ft 483 kts 41°
2026-04-29 13:27 9.94748 -9.14473 30870 ft 483 kts 41°
2026-04-29 13:28 9.99767 -9.09923 30865 ft 484 kts 41°
2026-04-29 13:28 10.04791 -9.05367 30862 ft 484 kts 41°
2026-04-29 13:29 10.09791 -9.00830 30862 ft 484 kts 41°
2026-04-29 13:29 10.14818 -8.96267 30865 ft 485 kts 41°
2026-04-29 13:30 10.19852 -8.91696 30866 ft 485 kts 41°
2026-04-29 13:30 10.24887 -8.87122 30862 ft 485 kts 41°
2026-04-29 13:31 10.29925 -8.82543 30867 ft 486 kts 41°
2026-04-29 13:31 10.34961 -8.77965 30868 ft 486 kts 41°
2026-04-29 13:32 10.39971 -8.73405 30872 ft 486 kts 41°
2026-04-29 13:32 10.45016 -8.68815 30872 ft 486 kts 41°
2026-04-29 13:33 10.50062 -8.64221 30876 ft 487 kts 41°
2026-04-29 13:33 10.55106 -8.59625 30875 ft 487 kts 41°
2026-04-29 13:34 10.60167 -8.55013 30874 ft 488 kts 41°
2026-04-29 13:34 10.65179 -8.50443 30879 ft 487 kts 41°
2026-04-29 13:35 10.70235 -8.45831 30880 ft 487 kts 41°
2026-04-29 13:35 10.75280 -8.41228 30879 ft 488 kts 41°
2026-04-29 13:36 10.80335 -8.36612 30886 ft 488 kts 41°
2026-04-29 13:36 10.85392 -8.31992 30882 ft 488 kts 41°
2026-04-29 13:37 10.90410 -8.27405 30890 ft 488 kts 41°
2026-04-29 13:37 10.95467 -8.22781 30887 ft 488 kts 41°
2026-04-29 13:38 11.00517 -8.18162 30894 ft 488 kts 41°
2026-04-29 13:38 11.05579 -8.13530 30893 ft 488 kts 41°
2026-04-29 13:39 11.10631 -8.08903 30895 ft 488 kts 41°
2026-04-29 13:39 11.15644 -8.04310 30895 ft 488 kts 41°
2026-04-29 13:40 11.20687 -7.99686 30900 ft 487 kts 41°
2026-04-29 13:40 11.25731 -7.95063 30897 ft 487 kts 41°
2026-04-29 13:41 11.30775 -7.90435 30907 ft 487 kts 41°
2026-04-29 13:41 11.35817 -7.85807 30906 ft 487 kts 41°
2026-04-29 13:42 11.40857 -7.81178 30908 ft 488 kts 41°
2026-04-29 13:42 11.45909 -7.76538 30909 ft 488 kts 41°
2026-04-29 13:43 11.50926 -7.71925 30910 ft 489 kts 41°
2026-04-29 13:43 11.55978 -7.67279 30911 ft 489 kts 41°
2026-04-29 13:44 11.61035 -7.62625 30918 ft 489 kts 41°
2026-04-29 13:44 11.66084 -7.57975 30917 ft 489 kts 41°
2026-04-29 13:45 11.71147 -7.53310 30918 ft 489 kts 41°
2026-04-29 13:45 11.76203 -7.48651 30920 ft 490 kts 41°
2026-04-29 13:46 11.81226 -7.44020 30921 ft 490 kts 41°
2026-04-29 13:46 11.86281 -7.39357 30922 ft 490 kts 41°
2026-04-29 13:47 11.91345 -7.34682 30926 ft 490 kts 41°
2026-04-29 13:47 11.96407 -7.30007 30925 ft 490 kts 41°
2026-04-29 13:48 12.01468 -7.25330 30929 ft 491 kts 41°
2026-04-29 13:48 12.06532 -7.20647 30931 ft 491 kts 41°
2026-04-29 13:49 12.11599 -7.15960 30928 ft 491 kts 41°
2026-04-29 13:49 12.16666 -7.11271 30928 ft 491 kts 41°
2026-04-29 13:50 12.21707 -7.06603 30935 ft 491 kts 41°
2026-04-29 13:50 12.26809 -7.01876 30934 ft 492 kts 41°
2026-04-29 13:51 12.31842 -6.97210 30932 ft 492 kts 41°
2026-04-29 13:51 12.36919 -6.92500 30931 ft 492 kts 41°
2026-04-29 13:52 12.41995 -6.87790 30933 ft 492 kts 41°
2026-04-29 13:52 12.47080 -6.83069 30936 ft 493 kts 41°
2026-04-29 13:53 12.52128 -6.78379 30934 ft 493 kts 41°
2026-04-29 13:53 12.57209 -6.73655 30938 ft 493 kts 41°
2026-04-29 13:54 12.62288 -6.68932 30938 ft 493 kts 41°
2026-04-29 13:54 12.67370 -6.64201 30938 ft 493 kts 41°
2026-04-29 13:55 12.72416 -6.59503 30941 ft 492 kts 41°
2026-04-29 13:55 12.77484 -6.54782 30927 ft 493 kts 41°
2026-04-29 13:56 12.82552 -6.50057 30944 ft 492 kts 41°
2026-04-29 13:56 12.87621 -6.45328 30938 ft 492 kts 41°
2026-04-29 13:57 12.92679 -6.40608 30937 ft 491 kts 41°
2026-04-29 13:57 12.96881 -6.36684 30936 ft 491 kts 41°
2026-04-29 13:58 13.02755 -6.31196 30929 ft 492 kts 41°
2026-04-29 13:58 13.07811 -6.26470 30945 ft 492 kts 41°
2026-04-29 13:59 13.12880 -6.21729 30941 ft 492 kts 41°
2026-04-29 13:59 13.17940 -6.16992 30939 ft 493 kts 41°
2026-04-29 14:00 13.23008 -6.12246 30943 ft 494 kts 41°
2026-04-29 14:00 13.28099 -6.07475 30946 ft 495 kts 41°
2026-04-29 14:01 13.33183 -6.02709 30944 ft 496 kts 41°
2026-04-29 14:01 13.38254 -5.97951 30941 ft 497 kts 41°
2026-04-29 14:02 13.43362 -5.93155 30939 ft 498 kts 41°
2026-04-29 14:02 13.48487 -5.88341 30940 ft 499 kts 41°
2026-04-29 14:03 13.53617 -5.83520 30935 ft 500 kts 41°
2026-04-29 14:03 13.58763 -5.78679 30926 ft 501 kts 41°
2026-04-29 14:04 13.63911 -5.73833 30922 ft 501 kts 41°
2026-04-29 14:04 13.69022 -5.69020 30923 ft 501 kts 41°
2026-04-29 14:05 13.74187 -5.64207 30917 ft 500 kts 39°
2026-04-29 14:05 13.79490 -5.59628 30917 ft 499 kts 38°
2026-04-29 14:06 13.84844 -5.55088 30919 ft 499 kts 38°
2026-04-29 14:06 13.90175 -5.50519 30915 ft 498 kts 38°
2026-04-29 14:07 13.94594 -5.46699 30915 ft 498 kts 38°
2026-04-29 14:07 13.99896 -5.42101 30912 ft 498 kts 38°
2026-04-29 14:08 14.05210 -5.37491 30912 ft 498 kts 38°
2026-04-29 14:08 14.10500 -5.32900 30914 ft 498 kts 38°
2026-04-29 14:09 14.15802 -5.28298 30912 ft 498 kts 38°
2026-04-29 14:09 14.21068 -5.23725 30915 ft 497 kts 38°
2026-04-29 14:10 14.26354 -5.19130 30911 ft 497 kts 38°
2026-04-29 14:10 14.31653 -5.14522 30911 ft 497 kts 38°
2026-04-29 14:11 14.36943 -5.09917 30908 ft 498 kts 38°
2026-04-29 14:11 14.42241 -5.05304 30906 ft 498 kts 38°
2026-04-29 14:12 14.47540 -5.00687 30907 ft 498 kts 38°
2026-04-29 14:12 14.52804 -4.96097 30906 ft 498 kts 38°
2026-04-29 14:13 14.58099 -4.91477 30904 ft 498 kts 38°
2026-04-29 14:13 14.63393 -4.86855 30901 ft 498 kts 38°
2026-04-29 14:14 14.68684 -4.82232 30887 ft 498 kts 38°
2026-04-29 14:14 14.73982 -4.77601 30903 ft 498 kts 38°
2026-04-29 14:15 14.79276 -4.72969 30905 ft 498 kts 38°
2026-04-29 14:15 14.84560 -4.68344 30884 ft 498 kts 38°
2026-04-29 14:16 14.89810 -4.63745 30887 ft 498 kts 38°
2026-04-29 14:16 14.95094 -4.59113 30885 ft 497 kts 38°
2026-04-29 14:17 15.00377 -4.54479 30902 ft 497 kts 38°
2026-04-29 14:17 15.05655 -4.49847 30899 ft 498 kts 38°
2026-04-29 14:18 15.10936 -4.45208 30883 ft 498 kts 38°
2026-04-29 14:18 15.16219 -4.40565 30884 ft 498 kts 38°
2026-04-29 14:19 15.21505 -4.35916 30885 ft 498 kts 38°
2026-04-29 14:19 15.26749 -4.31301 30886 ft 498 kts 38°
2026-04-29 14:20 15.32030 -4.26650 30901 ft 497 kts 38°
2026-04-29 14:20 15.37313 -4.21994 30903 ft 498 kts 38°
2026-04-29 14:21 15.42581 -4.17347 30888 ft 498 kts 38°
2026-04-29 14:21 15.47865 -4.12684 30882 ft 498 kts 38°
2026-04-29 14:22 15.53145 -4.08022 30884 ft 498 kts 38°
2026-04-29 14:22 15.58391 -4.03385 30885 ft 498 kts 38°
2026-04-29 14:23 15.63676 -3.98712 30883 ft 499 kts 38°
2026-04-29 14:23 15.68961 -3.94034 30882 ft 499 kts 37°
2026-04-29 14:24 15.74211 -3.89385 30894 ft 499 kts 37°
2026-04-29 14:24 15.79501 -3.84697 30877 ft 499 kts 37°
2026-04-29 14:25 15.84789 -3.80007 30876 ft 499 kts 37°
2026-04-29 14:25 15.90078 -3.75312 30876 ft 499 kts 37°
2026-04-29 14:26 15.95429 -3.70564 30875 ft 514 kts 38°
2026-04-29 14:26 16.00906 -3.65701 30863 ft 517 kts 38°
2026-04-29 14:27 16.06330 -3.60872 30865 ft 515 kts 38°
2026-04-29 14:28 16.14478 -3.53612 30865 ft 513 kts 38°
2026-04-29 14:28 16.19904 -3.48778 30862 ft 513 kts 38°
2026-04-29 14:29 16.25329 -3.43940 30864 ft 514 kts 38°
2026-04-29 14:29 16.30773 -3.39082 30859 ft 515 kts 38°
2026-04-29 14:30 16.36222 -3.34215 30862 ft 517 kts 38°
2026-04-29 14:30 16.41684 -3.29333 30856 ft 518 kts 38°
2026-04-29 14:31 16.47115 -3.24474 30857 ft 518 kts 38°
2026-04-29 14:31 16.52584 -3.19579 30856 ft 518 kts 38°
2026-04-29 14:32 16.58054 -3.14678 30854 ft 518 kts 38°
2026-04-29 14:32 16.63516 -3.09780 30857 ft 518 kts 37°
2026-04-29 14:33 16.68985 -3.04873 30855 ft 518 kts 37°
2026-04-29 14:33 16.74452 -2.99963 30853 ft 518 kts 37°
2026-04-29 14:34 16.79915 -2.95054 30855 ft 518 kts 37°
2026-04-29 14:34 16.85385 -2.90134 30855 ft 519 kts 37°
2026-04-29 14:35 16.90854 -2.85211 30854 ft 519 kts 37°
2026-04-29 14:35 16.96328 -2.80280 30854 ft 519 kts 37°
2026-04-29 14:36 17.01761 -2.75382 30856 ft 520 kts 37°
2026-04-29 14:36 17.07254 -2.70425 30855 ft 520 kts 37°
2026-04-29 14:37 17.12730 -2.65480 30851 ft 520 kts 37°
2026-04-29 14:37 17.18208 -2.60529 30852 ft 521 kts 37°
2026-04-29 14:38 17.23691 -2.55570 30851 ft 521 kts 37°
2026-04-29 14:38 17.29176 -2.50605 30854 ft 521 kts 37°
2026-04-29 14:39 17.34662 -2.45635 30847 ft 522 kts 37°
2026-04-29 14:39 17.40155 -2.40655 30845 ft 522 kts 37°
2026-04-29 14:40 17.45611 -2.35703 30845 ft 522 kts 37°
2026-04-29 14:40 17.51105 -2.30713 30841 ft 522 kts 37°
2026-04-29 14:41 17.56593 -2.25725 30840 ft 523 kts 37°
2026-04-29 14:41 17.62087 -2.20727 30838 ft 523 kts 37°
2026-04-29 14:42 17.67580 -2.15726 30836 ft 523 kts 37°
2026-04-29 14:42 17.73072 -2.10721 30837 ft 523 kts 37°
2026-04-29 14:43 17.78567 -2.05709 30834 ft 523 kts 37°
2026-04-29 14:43 17.84055 -2.00700 30837 ft 523 kts 37°
2026-04-29 14:44 17.89546 -1.95683 30839 ft 523 kts 37°
2026-04-29 14:44 17.95000 -1.90696 30838 ft 523 kts 37°
2026-04-29 14:45 18.00484 -1.85678 30838 ft 523 kts 37°
2026-04-29 14:45 18.05971 -1.80653 30842 ft 523 kts 37°
2026-04-29 14:46 18.11455 -1.75626 30839 ft 523 kts 37°
2026-04-29 14:46 18.16945 -1.70588 30843 ft 523 kts 37°
2026-04-29 14:47 18.22429 -1.65552 30842 ft 524 kts 37°
2026-04-29 14:47 18.27919 -1.60506 30846 ft 524 kts 37°
2026-04-29 14:48 18.33412 -1.55454 30848 ft 525 kts 38°
2026-04-29 14:48 18.38915 -1.50387 30839 ft 525 kts 38°
2026-04-29 14:49 18.44378 -1.45353 30843 ft 526 kts 38°
2026-04-29 14:49 18.49888 -1.40271 30851 ft 526 kts 38°
2026-04-29 14:50 18.55399 -1.35183 30841 ft 526 kts 38°
2026-04-29 14:50 18.60904 -1.30097 30844 ft 527 kts 38°
2026-04-29 14:51 18.66421 -1.24994 30842 ft 527 kts 38°
2026-04-29 14:51 18.71906 -1.19918 30840 ft 528 kts 38°
2026-04-29 14:52 18.77428 -1.14801 30840 ft 528 kts 38°
2026-04-29 14:52 18.82950 -1.09680 30841 ft 529 kts 38°
2026-04-29 14:53 18.87544 -1.05417 30841 ft 529 kts 38°
2026-04-29 14:53 18.93081 -1.00273 30842 ft 529 kts 38°
2026-04-29 14:54 18.98607 -0.95136 30841 ft 529 kts 38°
2026-04-29 14:54 19.04140 -0.89987 30841 ft 530 kts 38°
2026-04-29 14:55 19.09680 -0.84827 30841 ft 530 kts 38°
2026-04-29 14:55 19.15183 -0.79696 30835 ft 530 kts 38°
2026-04-29 14:56 19.20714 -0.74535 30837 ft 531 kts 38°
2026-04-29 14:56 19.26249 -0.69365 30840 ft 531 kts 38°
2026-04-29 14:57 19.31790 -0.64185 30836 ft 531 kts 37°
2026-04-29 14:57 19.37321 -0.59008 30840 ft 531 kts 38°
2026-04-29 14:58 19.42856 -0.53823 30838 ft 531 kts 38°
2026-04-29 14:58 19.48384 -0.48641 30838 ft 531 kts 38°
2026-04-29 14:59 19.53917 -0.43449 30842 ft 531 kts 38°
2026-04-29 14:59 19.59451 -0.38250 30837 ft 531 kts 38°
2026-04-29 15:00 19.64940 -0.33088 30835 ft 531 kts 38°
2026-04-29 15:00 19.70468 -0.27886 30829 ft 531 kts 38°
2026-04-29 15:01 19.75993 -0.22680 30831 ft 531 kts 38°
2026-04-29 15:01 19.81518 -0.17470 30821 ft 531 kts 38°
2026-04-29 15:02 19.87039 -0.12258 30827 ft 531 kts 38°
2026-04-29 15:02 19.92566 -0.07035 30831 ft 531 kts 38°
2026-04-29 15:03 19.98049 -0.01843 30830 ft 532 kts 39°
2026-04-29 15:03 20.03086 0.03959 30829 ft 537 kts 50°
2026-04-29 15:04 20.07618 0.10285 30819 ft 538 kts 50°
2026-04-29 15:04 20.12193 0.16590 30826 ft 538 kts 49°
2026-04-29 15:05 20.16799 0.22876 30812 ft 538 kts 49°
2026-04-29 15:05 20.21419 0.29170 30813 ft 539 kts 49°
2026-04-29 15:06 20.26035 0.35470 30822 ft 539 kts 49°
2026-04-29 15:06 20.30640 0.41766 30811 ft 539 kts 49°
2026-04-29 15:07 20.35226 0.48043 30812 ft 540 kts 49°
2026-04-29 15:07 20.39846 0.54377 30815 ft 540 kts 49°
2026-04-29 15:08 20.44458 0.60704 30831 ft 540 kts 49°
2026-04-29 15:08 20.49068 0.67035 30806 ft 540 kts 49°
2026-04-29 15:09 20.53682 0.73381 30812 ft 540 kts 49°
2026-04-29 15:09 20.58283 0.79714 30811 ft 540 kts 49°
2026-04-29 15:10 20.62885 0.86055 30814 ft 540 kts 49°
2026-04-29 15:10 20.67459 0.92366 30814 ft 540 kts 49°
2026-04-29 15:11 20.72052 0.98709 30816 ft 540 kts 49°
2026-04-29 15:11 20.76646 1.05062 30811 ft 540 kts 49°
2026-04-29 15:12 20.81232 1.11408 30810 ft 539 kts 49°
2026-04-29 15:12 20.85820 1.17767 30811 ft 539 kts 49°
2026-04-29 15:13 20.90400 1.24120 30811 ft 539 kts 49°
2026-04-29 15:13 20.94947 1.30436 30814 ft 539 kts 49°
2026-04-29 15:14 20.99517 1.36789 30814 ft 538 kts 49°
2026-04-29 15:14 21.04083 1.43145 30810 ft 538 kts 49°
2026-04-29 15:15 21.08621 1.49470 30812 ft 538 kts 49°
2026-04-29 15:15 21.13173 1.55821 30809 ft 537 kts 49°
2026-04-29 15:16 21.17716 1.62166 30813 ft 536 kts 50°
2026-04-29 15:16 21.22258 1.68516 30815 ft 536 kts 50°
2026-04-29 15:17 21.26792 1.74863 30812 ft 535 kts 50°
2026-04-29 15:17 21.31315 1.81203 30817 ft 535 kts 50°
2026-04-29 15:18 21.35830 1.87537 30815 ft 534 kts 50°
2026-04-29 15:18 21.40320 1.93844 30820 ft 534 kts 50°
2026-04-29 15:19 21.44825 2.00179 30820 ft 534 kts 50°
2026-04-29 15:19 21.49335 2.06529 30822 ft 534 kts 50°
2026-04-29 15:20 21.53847 2.12888 30823 ft 533 kts 50°
2026-04-29 15:20 21.58338 2.19226 30823 ft 533 kts 50°
2026-04-29 15:21 21.62802 2.25533 30824 ft 533 kts 50°
2026-04-29 15:21 21.67287 2.31877 30821 ft 533 kts 50°
2026-04-29 15:22 21.71771 2.38226 30821 ft 532 kts 50°
2026-04-29 15:22 21.76249 2.44574 30824 ft 532 kts 51°
2026-04-29 15:23 21.80721 2.50922 30826 ft 532 kts 51°
2026-04-29 15:23 21.85189 2.57272 30822 ft 532 kts 51°
2026-04-29 15:24 21.89655 2.63625 30821 ft 532 kts 51°
2026-04-29 15:24 21.94128 2.69995 30822 ft 533 kts 51°
2026-04-29 15:25 21.98578 2.76342 30825 ft 534 kts 51°
2026-04-29 15:25 22.03059 2.82739 30827 ft 535 kts 51°
2026-04-29 15:26 22.07541 2.89145 30825 ft 536 kts 51°
2026-04-29 15:26 22.12027 2.95566 30830 ft 536 kts 51°
2026-04-29 15:27 22.16509 3.01987 30829 ft 537 kts 51°
2026-04-29 15:27 22.21004 3.08436 30826 ft 537 kts 51°
2026-04-29 15:28 22.25494 3.14884 30831 ft 536 kts 51°
2026-04-29 15:28 22.29951 3.21295 30834 ft 536 kts 51°
2026-04-29 15:29 22.34418 3.27726 30834 ft 535 kts 51°
2026-04-29 15:30 22.43335 3.40587 30837 ft 533 kts 51°
2026-04-29 15:30 22.47777 3.47005 30841 ft 533 kts 51°
2026-04-29 15:31 22.52221 3.53434 30850 ft 533 kts 51°
2026-04-29 15:31 22.56654 3.59855 30867 ft 534 kts 51°
2026-04-29 15:31 22.58887 3.63091 31106 ft 538 kts 51°
2026-04-29 15:32 22.61125 3.66338 31575 ft 536 kts 51°
2026-04-29 15:32 22.63319 3.69525 32062 ft 535 kts 50°
2026-04-29 15:32 22.65550 3.72767 32474 ft 535 kts 50°
2026-04-29 15:32 22.67782 3.76012 32833 ft 537 kts 50°
2026-04-29 15:33 22.70011 3.79253 33207 ft 537 kts 50°
2026-04-29 15:33 22.72243 3.82501 33597 ft 538 kts 50°
2026-04-29 15:33 22.74481 3.85760 33972 ft 538 kts 50°
2026-04-29 15:33 22.76714 3.89014 34305 ft 538 kts 50°
2026-04-29 15:34 22.78917 3.92227 34650 ft 537 kts 49°
2026-04-29 15:34 22.81155 3.95491 34969 ft 537 kts 49°
2026-04-29 15:34 22.83383 3.98744 35273 ft 538 kts 49°
2026-04-29 15:34 22.85615 4.02003 35557 ft 538 kts 49°
2026-04-29 15:35 22.87849 4.05268 35841 ft 539 kts 49°
2026-04-29 15:35 22.90082 4.08533 36120 ft 539 kts 49°
2026-04-29 15:35 22.92321 4.11810 36404 ft 540 kts 49°
2026-04-29 15:35 22.94564 4.15094 36677 ft 541 kts 49°
2026-04-29 15:36 22.96805 4.18376 36833 ft 543 kts 49°
2026-04-29 15:36 23.01309 4.24979 36880 ft 544 kts 49°
2026-04-29 15:37 23.05768 4.31532 36883 ft 541 kts 49°
2026-04-29 15:37 23.10228 4.38092 36902 ft 539 kts 49°
2026-04-29 15:38 23.14680 4.44645 36902 ft 538 kts 49°
2026-04-29 15:38 23.19123 4.51192 36900 ft 538 kts 49°
2026-04-29 15:39 23.23541 4.57712 36916 ft 539 kts 49°
2026-04-29 15:39 23.27984 4.64276 36918 ft 540 kts 49°
2026-04-29 15:40 23.32443 4.70871 36924 ft 540 kts 49°
2026-04-29 15:40 23.36892 4.77464 36927 ft 542 kts 49°
2026-04-29 15:41 23.40602 4.82969 36941 ft 542 kts 49°
2026-04-29 15:41 23.45069 4.89604 36943 ft 543 kts 49°
2026-04-29 15:42 23.49536 4.96247 36949 ft 543 kts 49°
2026-04-29 15:42 23.54008 5.02907 36954 ft 543 kts 49°
2026-04-29 15:43 23.58467 5.09556 36957 ft 543 kts 49°
2026-04-29 15:43 23.62893 5.16165 36963 ft 543 kts 49°
2026-04-29 15:44 23.67360 5.22842 36963 ft 543 kts 49°
2026-04-29 15:44 23.71806 5.29496 36966 ft 542 kts 50°
2026-04-29 15:45 23.76249 5.36158 36964 ft 542 kts 50°
2026-04-29 15:45 23.80653 5.42767 36959 ft 542 kts 50°
2026-04-29 15:46 23.85092 5.49438 36960 ft 543 kts 50°
2026-04-29 15:46 23.89532 5.56119 36968 ft 543 kts 50°
2026-04-29 15:47 23.93972 5.62810 36963 ft 544 kts 50°
2026-04-29 15:47 23.98419 5.69519 36966 ft 544 kts 50°
2026-04-29 15:48 24.02861 5.76232 36949 ft 545 kts 50°
2026-04-29 15:48 24.07302 5.82951 36953 ft 545 kts 50°
2026-04-29 15:49 24.11736 5.89670 36955 ft 545 kts 50°
2026-04-29 15:49 24.16157 5.96376 36932 ft 546 kts 50°
2026-04-29 15:50 24.20598 6.03123 36959 ft 546 kts 50°
2026-04-29 15:50 24.25039 6.09879 36957 ft 547 kts 50°
2026-04-29 15:51 24.29481 6.16644 36963 ft 547 kts 50°
2026-04-29 15:51 24.33928 6.23428 36963 ft 547 kts 50°
2026-04-29 15:52 24.38368 6.30212 36944 ft 547 kts 50°
2026-04-29 15:52 24.42803 6.36996 36946 ft 547 kts 50°
2026-04-29 15:53 24.47240 6.43793 36945 ft 547 kts 50°
2026-04-29 15:53 24.51645 6.50549 36945 ft 547 kts 50°
2026-04-29 15:54 24.56069 6.57346 36949 ft 547 kts 50°
2026-04-29 15:54 24.60491 6.64148 36949 ft 547 kts 50°
2026-04-29 15:55 24.64912 6.70956 36950 ft 547 kts 50°
2026-04-29 15:55 24.69328 6.77769 36952 ft 547 kts 50°
2026-04-29 15:56 24.73712 6.84541 36957 ft 547 kts 50°
2026-04-29 15:56 24.78134 6.91381 36963 ft 547 kts 50°
2026-04-29 15:57 24.82535 6.98199 36970 ft 547 kts 50°
2026-04-29 15:57 24.86939 7.05032 36982 ft 547 kts 50°
2026-04-29 15:58 24.91309 7.11821 36982 ft 547 kts 50°
2026-04-29 15:58 24.95784 7.18584 36981 ft 544 kts 45°
2026-04-29 15:59 25.00983 7.24546 36989 ft 537 kts 39°
2026-04-29 15:59 25.06312 7.30263 36997 ft 537 kts 39°
2026-04-29 16:00 25.11648 7.36057 36990 ft 538 kts 39°
2026-04-29 16:00 25.16971 7.41895 36981 ft 539 kts 39°
2026-04-29 16:01 25.22290 7.47751 36996 ft 540 kts 40°
2026-04-29 16:01 25.27578 7.53576 36977 ft 540 kts 39°
2026-04-29 16:02 25.32910 7.59454 36991 ft 541 kts 39°
2026-04-29 16:02 25.38246 7.65341 36999 ft 542 kts 39°
2026-04-29 16:03 25.43583 7.71239 36977 ft 542 kts 39°
2026-04-29 16:03 25.48926 7.77152 36980 ft 542 kts 39°
2026-04-29 16:04 25.54233 7.83033 36970 ft 542 kts 39°
2026-04-29 16:04 25.59566 7.88950 36967 ft 542 kts 39°
2026-04-29 16:05 25.64880 7.94854 36961 ft 541 kts 39°
2026-04-29 16:05 25.70193 8.00765 36949 ft 541 kts 39°
2026-04-29 16:06 25.75505 8.06682 36955 ft 540 kts 39°
2026-04-29 16:06 25.80795 8.12581 36940 ft 539 kts 39°
2026-04-29 16:07 25.86059 8.18464 36935 ft 538 kts 39°
2026-04-29 16:07 25.91343 8.24373 36923 ft 538 kts 39°
2026-04-29 16:08 25.96610 8.30272 36929 ft 537 kts 39°
2026-04-29 16:08 26.01866 8.36165 36913 ft 536 kts 39°
2026-04-29 16:09 26.07090 8.42030 36911 ft 537 kts 39°
2026-04-29 16:09 26.12347 8.47944 36917 ft 537 kts 39°
2026-04-29 16:10 26.17604 8.53863 36906 ft 538 kts 40°
2026-04-29 16:10 26.22871 8.59800 36903 ft 538 kts 40°
2026-04-29 16:11 26.28135 8.65742 36903 ft 538 kts 40°
2026-04-29 16:11 26.33398 8.71694 36900 ft 539 kts 40°
2026-04-29 16:12 26.38656 8.77649 36890 ft 539 kts 40°
2026-04-29 16:12 26.43894 8.83587 36895 ft 539 kts 40°
2026-04-29 16:13 26.49157 8.89561 36899 ft 539 kts 40°
2026-04-29 16:13 26.54415 8.95539 36891 ft 539 kts 40°
2026-04-29 16:14 26.59681 9.01534 36868 ft 540 kts 40°
2026-04-29 16:14 26.64939 9.07530 36890 ft 539 kts 40°
2026-04-29 16:15 26.70165 9.13496 36890 ft 540 kts 40°
2026-04-29 16:15 26.75429 9.19514 36870 ft 540 kts 40°
2026-04-29 16:16 26.80688 9.25535 36877 ft 542 kts 40°
2026-04-29 16:16 26.85956 9.31574 36872 ft 543 kts 40°